Time,TemperatureF,DewpointF,PressureIn,WindDirection,WindDirectionDegrees,WindSpeedMPH,WindSpeedGustMPH,Humidity,HourlyPrecipIn,Conditions,Clouds,dailyrainin,SoftwareType,DateUTC
2013-02-27 00:00:00,40.9,34.3,29.82,NW,311,5.0,9.0,77,0.00,,---,0.00,VWS V14.01,2013-02-27 06:00:00,
2013-02-27 00:01:00,40.9,34.3,29.82,WNW,289,9.0,9.0,77,0.00,,---,0.00,VWS V14.01,2013-02-27 06:01:00,
2013-02-27 00:02:00,40.9,34.3,29.83,WNW,283,8.0,9.0,77,0.00,,---,0.00,VWS V14.01,2013-02-27 06:02:00,
2013-02-27 00:05:00,40.8,34.2,29.83,WNW,292,10.0,11.0,77,0.00,,---,0.00,VWS V14.01,2013-02-27 06:05:00,
2013-02-27 00:06:00,40.8,34.2,29.83,West,269,10.0,12.0,77,0.00,,---,0.00,VWS V14.01,2013-02-27 06:06:00,
2013-02-27 00:07:00,40.9,34.3,29.83,WNW,299,4.0,13.0,77,0.00,,---,0.00,VWS V14.01,2013-02-27 06:07:00,
2013-02-27 00:10:00,40.9,34.3,29.83,WNW,288,6.0,13.0,77,0.00,,---,0.00,VWS V14.01,2013-02-27 06:10:00,
2013-02-27 00:11:00,40.9,34.3,29.83,NW,315,4.0,13.0,77,0.00,,---,0.00,VWS V14.01,2013-02-27 06:11:00,
2013-02-27 00:12:00,40.8,34.2,29.83,WNW,297,4.0,13.0,77,0.00,,---,0.00,VWS V14.01,2013-02-27 06:12:00,
2013-02-27 00:16:00,40.8,34.2,29.83,WNW,292,5.0,8.0,77,0.00,,---,0.00,VWS V14.01,2013-02-27 06:16:00,
2013-02-27 00:17:00,40.8,34.2,29.83,West,271,9.0,9.0,77,0.00,,---,0.00,VWS V14.01,2013-02-27 06:17:00,
2013-02-27 00:21:00,40.8,34.2,29.83,NW,309,8.0,11.0,77,0.00,,---,0.00,VWS V14.01,2013-02-27 06:21:00,
2013-02-27 00:22:00,40.8,34.2,29.84,WNW,291,8.0,11.0,77,0.00,,---,0.00,VWS V14.01,2013-02-27 06:22:00,
2013-02-27 00:26:00,40.9,34.3,29.84,WNW,292,9.0,11.0,77,0.00,,---,0.00,VWS V14.01,2013-02-27 06:26:00,
2013-02-27 00:27:00,40.9,33.9,29.84,West,271,7.0,11.0,76,0.00,,---,0.00,VWS V14.01,2013-02-27 06:27:00,
2013-02-27 00:31:00,40.9,33.9,29.83,West,276,8.0,11.0,76,0.00,,---,0.00,VWS V14.01,2013-02-27 06:31:00,
2013-02-27 00:33:00,40.9,33.9,29.83,NW,317,1.0,16.0,76,0.00,,---,0.00,VWS V14.01,2013-02-27 06:33:00,
2013-02-27 00:36:00,40.9,33.9,29.84,WNW,292,6.0,16.0,76,0.00,,---,0.00,VWS V14.01,2013-02-27 06:36:00,
2013-02-27 00:38:00,40.9,33.9,29.84,NW,304,10.0,16.0,76,0.00,,---,0.00,VWS V14.01,2013-02-27 06:38:00,
2013-02-27 00:41:00,40.9,33.9,29.84,WNW,286,5.0,16.0,76,0.00,,---,0.00,VWS V14.01,2013-02-27 06:41:00,
2013-02-27 00:42:00,40.8,33.8,29.84,WNW,294,4.0,16.0,76,0.00,,---,0.00,VWS V14.01,2013-02-27 06:42:00,
2013-02-27 00:43:00,40.8,33.8,29.84,WNW,292,3.0,16.0,76,0.00,,---,0.00,VWS V14.01,2013-02-27 06:43:00,
2013-02-27 00:46:00,40.8,33.8,29.84,West,268,1.0,12.0,76,0.00,,---,0.00,VWS V14.01,2013-02-27 06:46:00,
2013-02-27 00:47:00,40.9,33.9,29.84,NW,315,6.0,12.0,76,0.00,,---,0.00,VWS V14.01,2013-02-27 06:47:00,
2013-02-27 00:48:00,40.9,33.6,29.84,WNW,283,5.0,12.0,75,0.00,,---,0.00,VWS V14.01,2013-02-27 06:48:00,
2013-02-27 00:51:00,40.9,33.9,29.84,WNW,294,6.0,12.0,76,0.00,,---,0.00,VWS V14.01,2013-02-27 06:51:00,
2013-02-27 00:52:00,40.9,33.9,29.84,WNW,292,9.0,12.0,76,0.00,,---,0.00,VWS V14.01,2013-02-27 06:52:00,
2013-02-27 00:53:00,40.9,33.6,29.84,NW,318,4.0,12.0,75,0.00,,---,0.00,VWS V14.01,2013-02-27 06:53:00,
2013-02-27 00:56:00,40.8,33.8,29.85,WNW,292,8.0,12.0,76,0.00,,---,0.00,VWS V14.01,2013-02-27 06:56:00,
2013-02-27 00:57:00,40.8,33.8,29.85,West,281,4.0,12.0,76,0.00,,---,0.00,VWS V14.01,2013-02-27 06:57:00,
2013-02-27 00:59:00,40.8,33.5,29.85,WNW,292,7.0,12.0,75,0.00,,---,0.00,VWS V14.01,2013-02-27 06:59:00,
2013-02-27 01:01:00,40.8,33.8,29.85,NW,312,3.0,6.0,76,0.00,,---,0.00,VWS V14.01,2013-02-27 07:01:00,
2013-02-27 01:02:00,40.8,33.8,29.85,WNW,292,5.0,6.0,76,0.00,,---,0.00,VWS V14.01,2013-02-27 07:02:00,
2013-02-27 01:04:00,40.8,33.8,29.85,WNW,288,6.0,9.0,76,0.00,,---,0.00,VWS V14.01,2013-02-27 07:04:00,
2013-02-27 01:06:00,40.8,33.5,29.85,WNW,287,8.0,9.0,75,0.00,,---,0.00,VWS V14.01,2013-02-27 07:06:00,
2013-02-27 01:07:00,40.8,33.5,29.85,WNW,285,11.0,12.0,75,0.00,,---,0.00,VWS V14.01,2013-02-27 07:07:00,
2013-02-27 01:09:00,40.8,33.5,29.85,NW,308,7.0,12.0,75,0.00,,---,0.00,VWS V14.01,2013-02-27 07:09:00,
2013-02-27 01:11:00,40.8,33.8,29.85,NW,304,5.0,12.0,76,0.00,,---,0.00,VWS V14.01,2013-02-27 07:11:00,
2013-02-27 01:12:00,40.8,33.8,29.85,West,271,5.0,12.0,76,0.00,,---,0.00,VWS V14.01,2013-02-27 07:12:00,
2013-02-27 01:14:00,40.8,33.8,29.85,WNW,290,6.0,12.0,76,0.00,,---,0.00,VWS V14.01,2013-02-27 07:14:00,
2013-02-27 01:17:00,40.7,33.7,29.85,WNW,283,5.0,7.0,76,0.00,,---,0.00,VWS V14.01,2013-02-27 07:17:00,
2013-02-27 01:19:00,40.7,34.1,29.85,WNW,284,6.0,8.0,77,0.00,,---,0.00,VWS V14.01,2013-02-27 07:19:00,
2013-02-27 01:22:00,40.7,33.7,29.85,WNW,292,7.0,9.0,76,0.00,,---,0.00,VWS V14.01,2013-02-27 07:22:00,
2013-02-27 01:24:00,40.7,33.7,29.85,West,275,3.0,9.0,76,0.00,,---,0.00,VWS V14.01,2013-02-27 07:24:00,
2013-02-27 01:27:00,40.7,33.7,29.85,WNW,290,6.0,12.0,76,0.00,,---,0.00,VWS V14.01,2013-02-27 07:27:00,
2013-02-27 01:29:00,40.7,33.7,29.85,NW,308,6.0,12.0,76,0.00,,---,0.00,VWS V14.01,2013-02-27 07:29:00,
2013-02-27 01:32:00,40.7,33.7,29.85,West,265,7.0,10.0,76,0.00,,---,0.00,VWS V14.01,2013-02-27 07:32:00,
2013-02-27 01:33:00,40.7,33.7,29.85,WNW,302,6.0,10.0,76,0.00,,---,0.00,VWS V14.01,2013-02-27 07:33:00,
2013-02-27 01:34:00,40.7,33.7,29.85,WNW,295,7.0,16.0,76,0.00,,---,0.00,VWS V14.01,2013-02-27 07:34:00,
2013-02-27 01:37:00,40.7,33.7,29.85,WNW,296,4.0,16.0,76,0.00,,---,0.00,VWS V14.01,2013-02-27 07:37:00,
2013-02-27 01:38:00,40.7,33.7,29.85,West,278,10.0,16.0,76,0.00,,---,0.00,VWS V14.01,2013-02-27 07:38:00,
2013-02-27 01:39:00,40.7,33.7,29.85,WNW,283,6.0,16.0,76,0.00,,---,0.00,VWS V14.01,2013-02-27 07:39:00,
2013-02-27 01:42:00,40.7,33.7,29.85,WNW,300,5.0,16.0,76,0.00,,---,0.00,VWS V14.01,2013-02-27 07:42:00,
2013-02-27 01:43:00,40.7,33.7,29.85,WNW,293,4.0,16.0,76,0.00,,---,0.00,VWS V14.01,2013-02-27 07:43:00,
2013-02-27 01:44:00,40.7,33.7,29.85,West,276,7.0,16.0,76,0.00,,---,0.00,VWS V14.01,2013-02-27 07:44:00,
2013-02-27 01:47:00,40.7,33.7,29.85,WNW,295,2.0,8.0,76,0.00,,---,0.00,VWS V14.01,2013-02-27 07:47:00,
2013-02-27 01:48:00,40.6,33.6,29.85,WNW,284,9.0,9.0,76,0.00,,---,0.00,VWS V14.01,2013-02-27 07:48:00,
2013-02-27 01:49:00,40.6,33.3,29.85,WNW,290,3.0,11.0,75,0.00,,---,0.00,VWS V14.01,2013-02-27 07:49:00,
2013-02-27 01:52:00,40.7,33.4,29.85,NW,304,1.0,11.0,75,0.00,,---,0.00,VWS V14.01,2013-02-27 07:52:00,
2013-02-27 01:53:00,40.6,33.6,29.85,WNW,297,2.0,11.0,76,0.00,,---,0.00,VWS V14.01,2013-02-27 07:53:00,
2013-02-27 01:54:00,40.6,33.6,29.85,NW,307,1.0,11.0,76,0.00,,---,0.00,VWS V14.01,2013-02-27 07:54:00,
2013-02-27 01:57:00,40.6,33.3,29.84,NW,309,0.0,11.0,75,0.00,,---,0.00,VWS V14.01,2013-02-27 07:57:00,
2013-02-27 01:58:00,40.6,33.3,29.84,West,271,3.0,11.0,75,0.00,,---,0.00,VWS V14.01,2013-02-27 07:58:00,
2013-02-27 01:59:00,40.6,33.3,29.84,WNW,302,2.0,11.0,75,0.00,,---,0.00,VWS V14.01,2013-02-27 07:59:00,
2013-02-27 02:02:00,40.5,33.2,29.84,WNW,300,2.0,4.0,75,0.00,,---,0.00,VWS V14.01,2013-02-27 08:02:00,
2013-02-27 02:03:00,40.5,33.2,29.84,NW,314,1.0,4.0,75,0.00,,---,0.00,VWS V14.01,2013-02-27 08:03:00,
2013-02-27 02:05:00,40.5,32.9,29.84,NW,309,4.0,9.0,74,0.00,,---,0.00,VWS V14.01,2013-02-27 08:05:00,
2013-02-27 02:07:00,40.6,33.0,29.84,West,281,7.0,9.0,74,0.00,,---,0.00,VWS V14.01,2013-02-27 08:07:00,
2013-02-27 02:08:00,40.5,32.9,29.84,WNW,292,5.0,9.0,74,0.00,,---,0.00,VWS V14.01,2013-02-27 08:08:00,
2013-02-27 02:09:00,40.5,32.9,29.84,WNW,285,5.0,9.0,74,0.00,,---,0.00,VWS V14.01,2013-02-27 08:09:00,
2013-02-27 02:10:00,40.5,33.2,29.84,WNW,297,5.0,9.0,75,0.00,,---,0.00,VWS V14.01,2013-02-27 08:10:00,
2013-02-27 02:12:00,40.5,33.2,29.84,West,279,4.0,9.0,75,0.00,,---,0.00,VWS V14.01,2013-02-27 08:12:00,
2013-02-27 02:14:00,40.5,33.2,29.84,WNW,292,7.0,9.0,75,0.00,,---,0.00,VWS V14.01,2013-02-27 08:14:00,
2013-02-27 02:15:00,40.5,33.2,29.83,West,278,5.0,9.0,75,0.00,,---,0.00,VWS V14.01,2013-02-27 08:15:00,
2013-02-27 02:17:00,40.5,32.5,29.83,NW,315,4.0,12.0,73,0.00,,---,0.00,VWS V14.01,2013-02-27 08:17:00,
2013-02-27 02:19:00,40.5,32.5,29.83,WNW,288,5.0,12.0,73,0.00,,---,0.00,VWS V14.01,2013-02-27 08:19:00,
2013-02-27 02:20:00,40.5,32.9,29.83,WSW,255,4.0,12.0,74,0.00,,---,0.00,VWS V14.01,2013-02-27 08:20:00,
2013-02-27 02:22:00,40.4,32.8,29.83,WNW,290,5.0,12.0,74,0.00,,---,0.00,VWS V14.01,2013-02-27 08:22:00,
2013-02-27 02:24:00,40.4,32.8,29.83,NW,304,5.0,12.0,74,0.00,,---,0.00,VWS V14.01,2013-02-27 08:24:00,
2013-02-27 02:25:00,40.4,32.8,29.83,West,274,6.0,12.0,74,0.00,,---,0.00,VWS V14.01,2013-02-27 08:25:00,
2013-02-27 02:28:00,40.4,33.1,29.83,West,276,5.0,12.0,75,0.00,,---,0.00,VWS V14.01,2013-02-27 08:28:00,
2013-02-27 02:29:00,40.4,32.8,29.83,WNW,298,9.0,12.0,74,0.00,,---,0.00,VWS V14.01,2013-02-27 08:29:00,
2013-02-27 02:30:00,40.4,33.1,29.83,WSW,242,4.0,12.0,75,0.00,,---,0.00,VWS V14.01,2013-02-27 08:30:00,
2013-02-27 02:33:00,40.4,33.1,29.83,NW,306,6.0,6.0,75,0.00,,---,0.00,VWS V14.01,2013-02-27 08:33:00,
2013-02-27 02:34:00,40.4,33.1,29.83,WNW,285,8.0,8.0,75,0.00,,---,0.00,VWS V14.01,2013-02-27 08:34:00,
2013-02-27 02:35:00,40.4,33.1,29.83,WNW,292,7.0,8.0,75,0.00,,---,0.00,VWS V14.01,2013-02-27 08:35:00,
2013-02-27 02:38:00,40.4,33.5,29.84,WNW,300,3.0,8.0,76,0.00,,---,0.00,VWS V14.01,2013-02-27 08:38:00,
2013-02-27 02:39:00,40.3,33.3,29.84,NW,309,4.0,8.0,76,0.00,,---,0.00,VWS V14.01,2013-02-27 08:39:00,
2013-02-27 02:40:00,40.3,33.3,29.84,NW,304,4.0,8.0,76,0.00,,---,0.00,VWS V14.01,2013-02-27 08:40:00,
2013-02-27 02:43:00,40.3,33.0,29.84,WNW,285,6.0,11.0,75,0.00,,---,0.00,VWS V14.01,2013-02-27 08:43:00,
2013-02-27 02:44:00,40.3,33.0,29.84,WNW,287,9.0,11.0,75,0.00,,---,0.00,VWS V14.01,2013-02-27 08:44:00,
2013-02-27 02:45:00,40.3,33.0,29.84,NW,307,6.0,6.0,75,0.00,,---,0.00,VWS V14.01,2013-02-27 08:45:00,
2013-02-27 02:48:00,40.4,33.1,29.84,NW,308,5.0,10.0,75,0.00,,---,0.00,VWS V14.01,2013-02-27 08:48:00,
2013-02-27 02:49:00,40.3,33.0,29.84,WNW,289,3.0,11.0,75,0.00,,---,0.00,VWS V14.01,2013-02-27 08:49:00,
2013-02-27 02:50:00,40.3,33.0,29.84,WNW,293,9.0,11.0,75,0.00,,---,0.00,VWS V14.01,2013-02-27 08:50:00,
2013-02-27 02:53:00,40.3,33.0,29.84,WNW,297,1.0,11.0,75,0.00,,---,0.00,VWS V14.01,2013-02-27 08:53:00,
2013-02-27 02:54:00,40.3,33.3,29.84,WNW,294,1.0,11.0,76,0.00,,---,0.00,VWS V14.01,2013-02-27 08:54:00,
2013-02-27 02:55:00,40.3,33.3,29.84,WNW,294,1.0,11.0,76,0.00,,---,0.00,VWS V14.01,2013-02-27 08:55:00,
2013-02-27 02:56:00,40.3,33.0,29.84,WNW,296,4.0,11.0,75,0.00,,---,0.00,VWS V14.01,2013-02-27 08:56:00,
2013-02-27 02:58:00,40.3,33.3,29.84,WNW,285,0.0,11.0,76,0.00,,---,0.00,VWS V14.01,2013-02-27 08:58:00,
2013-02-27 02:59:00,40.3,33.3,29.84,WNW,296,4.0,11.0,76,0.00,,---,0.00,VWS V14.01,2013-02-27 08:59:00,
2013-02-27 03:00:00,40.3,33.3,29.84,WNW,302,2.0,11.0,76,0.00,,---,0.00,VWS V14.01,2013-02-27 09:00:00,
2013-02-27 03:01:00,40.2,33.2,29.84,NW,304,8.0,8.0,76,0.00,,---,0.00,VWS V14.01,2013-02-27 09:01:00,
2013-02-27 03:03:00,40.3,33.3,29.84,WNW,288,1.0,9.0,76,0.00,,---,0.00,VWS V14.01,2013-02-27 09:03:00,
2013-02-27 03:04:00,40.2,33.2,29.84,NW,317,2.0,9.0,76,0.00,,---,0.00,VWS V14.01,2013-02-27 09:04:00,
2013-02-27 03:05:00,40.2,33.2,29.84,WNW,291,1.0,9.0,76,0.00,,---,0.00,VWS V14.01,2013-02-27 09:05:00,
2013-02-27 03:06:00,40.2,33.2,29.84,WNW,291,0.0,9.0,76,0.00,,---,0.00,VWS V14.01,2013-02-27 09:06:00,
2013-02-27 03:08:00,40.2,32.9,29.84,WNW,297,1.0,9.0,75,0.00,,---,0.00,VWS V14.01,2013-02-27 09:08:00,
2013-02-27 03:09:00,40.2,32.9,29.84,WNW,300,2.0,9.0,75,0.00,,---,0.00,VWS V14.01,2013-02-27 09:09:00,
2013-02-27 03:10:00,40.2,32.9,29.84,WNW,299,1.0,9.0,75,0.00,,---,0.00,VWS V14.01,2013-02-27 09:10:00,
2013-02-27 03:11:00,40.2,32.9,29.84,WNW,286,3.0,9.0,75,0.00,,---,0.00,VWS V14.01,2013-02-27 09:11:00,
2013-02-27 03:14:00,40.1,32.5,29.84,NW,304,1.0,9.0,74,0.00,,---,0.00,VWS V14.01,2013-02-27 09:14:00,
2013-02-27 03:15:00,40.1,32.5,29.84,West,279,3.0,9.0,74,0.00,,---,0.00,VWS V14.01,2013-02-27 09:15:00,
2013-02-27 03:16:00,40.1,32.8,29.84,WNW,303,0.0,3.0,75,0.00,,---,0.00,VWS V14.01,2013-02-27 09:16:00,
2013-02-27 03:19:00,40.0,32.4,29.84,WNW,282,7.0,7.0,74,0.00,,---,0.00,VWS V14.01,2013-02-27 09:19:00,
2013-02-27 03:20:00,40.0,32.4,29.84,WNW,290,8.0,12.0,74,0.00,,---,0.00,VWS V14.01,2013-02-27 09:20:00,
2013-02-27 03:21:00,40.0,32.4,29.84,WNW,302,1.0,12.0,74,0.00,,---,0.00,VWS V14.01,2013-02-27 09:21:00,
2013-02-27 03:24:00,40.0,32.1,29.85,WNW,290,4.0,12.0,73,0.00,,---,0.00,VWS V14.01,2013-02-27 09:24:00,
2013-02-27 03:25:00,40.0,32.4,29.84,West,278,6.0,12.0,74,0.00,,---,0.00,VWS V14.01,2013-02-27 09:25:00,
2013-02-27 03:26:00,40.0,32.4,29.85,NW,309,4.0,12.0,74,0.00,,---,0.00,VWS V14.01,2013-02-27 09:26:00,
2013-02-27 03:29:00,40.0,32.4,29.85,West,278,2.0,12.0,74,0.00,,---,0.00,VWS V14.01,2013-02-27 09:29:00,
2013-02-27 03:30:00,40.0,32.4,29.85,NW,316,8.0,12.0,74,0.00,,---,0.00,VWS V14.01,2013-02-27 09:30:00,
2013-02-27 03:31:00,40.0,32.1,29.85,WNW,297,6.0,9.0,73,0.00,,---,0.00,VWS V14.01,2013-02-27 09:31:00,
2013-02-27 03:34:00,40.0,32.1,29.85,WNW,299,3.0,9.0,73,0.00,,---,0.00,VWS V14.01,2013-02-27 09:34:00,
2013-02-27 03:35:00,40.0,32.4,29.85,WNW,301,4.0,9.0,74,0.00,,---,0.00,VWS V14.01,2013-02-27 09:35:00,
2013-02-27 03:36:00,39.9,32.3,29.85,WNW,282,10.0,10.0,74,0.00,,---,0.00,VWS V14.01,2013-02-27 09:36:00,
2013-02-27 03:39:00,39.9,32.0,29.85,WNW,289,0.0,10.0,73,0.00,,---,0.00,VWS V14.01,2013-02-27 09:39:00,
2013-02-27 03:40:00,39.9,32.0,29.85,WNW,300,1.0,10.0,73,0.00,,---,0.00,VWS V14.01,2013-02-27 09:40:00,
2013-02-27 03:41:00,39.9,32.0,29.85,NW,323,1.0,10.0,73,0.00,,---,0.00,VWS V14.01,2013-02-27 09:41:00,
2013-02-27 03:44:00,39.9,32.0,29.85,WNW,285,1.0,10.0,73,0.00,,---,0.00,VWS V14.01,2013-02-27 09:44:00,
2013-02-27 03:45:00,39.9,32.0,29.85,WNW,285,0.0,10.0,73,0.00,,---,0.00,VWS V14.01,2013-02-27 09:45:00,
2013-02-27 03:46:00,39.9,32.0,29.85,WNW,296,3.0,4.0,73,0.00,,---,0.00,VWS V14.01,2013-02-27 09:46:00,
2013-02-27 03:50:00,39.9,32.3,29.85,WSW,244,1.0,4.0,74,0.00,,---,0.00,VWS V14.01,2013-02-27 09:50:00,
2013-02-27 03:51:00,39.9,32.3,29.86,WNW,291,5.0,6.0,74,0.00,,---,0.00,VWS V14.01,2013-02-27 09:51:00,
2013-02-27 03:55:00,39.9,32.3,29.86,NW,304,1.0,6.0,74,0.00,,---,0.00,VWS V14.01,2013-02-27 09:55:00,
2013-02-27 03:56:00,39.9,32.3,29.86,WNW,297,3.0,6.0,74,0.00,,---,0.00,VWS V14.01,2013-02-27 09:56:00,
2013-02-27 04:00:00,39.9,32.3,29.86,WNW,288,1.0,6.0,74,0.00,,---,0.00,VWS V14.01,2013-02-27 10:00:00,
2013-02-27 04:01:00,39.9,32.3,29.86,WNW,298,0.0,3.0,74,0.00,,---,0.00,VWS V14.01,2013-02-27 10:01:00,
2013-02-27 04:05:00,39.8,32.5,29.86,WNW,294,2.0,5.0,75,0.00,,---,0.00,VWS V14.01,2013-02-27 10:05:00,
2013-02-27 04:06:00,39.8,32.5,29.86,WNW,287,2.0,5.0,75,0.00,,---,0.00,VWS V14.01,2013-02-27 10:06:00,
2013-02-27 04:10:00,39.8,32.5,29.86,WNW,292,0.0,6.0,75,0.00,,---,0.00,VWS V14.01,2013-02-27 10:10:00,
2013-02-27 04:11:00,39.8,32.5,29.86,WNW,285,4.0,6.0,75,0.00,,---,0.00,VWS V14.01,2013-02-27 10:11:00,
2013-02-27 04:15:00,39.8,32.9,29.86,West,268,0.0,1.0,76,0.00,,---,0.00,VWS V14.01,2013-02-27 10:15:00,
2013-02-27 04:16:00,39.7,32.8,29.86,West,268,0.0,1.0,76,0.00,,---,0.00,VWS V14.01,2013-02-27 10:16:00,
2013-02-27 04:17:00,39.7,32.8,29.86,WNW,297,3.0,3.0,76,0.00,,---,0.00,VWS V14.01,2013-02-27 10:17:00,
2013-02-27 04:20:00,39.7,32.8,29.86,WNW,292,3.0,4.0,76,0.00,,---,0.00,VWS V14.01,2013-02-27 10:20:00,
2013-02-27 04:21:00,39.7,32.8,29.86,WNW,294,1.0,4.0,76,0.00,,---,0.00,VWS V14.01,2013-02-27 10:21:00,
2013-02-27 04:22:00,39.7,32.8,29.86,WNW,289,1.0,4.0,76,0.00,,---,0.00,VWS V14.01,2013-02-27 10:22:00,
2013-02-27 04:26:00,39.7,32.8,29.86,WNW,282,2.0,6.0,76,0.00,,---,0.00,VWS V14.01,2013-02-27 10:26:00,
2013-02-27 04:27:00,39.7,32.8,29.86,WNW,285,1.0,6.0,76,0.00,,---,0.00,VWS V14.01,2013-02-27 10:27:00,
2013-02-27 04:31:00,39.7,33.1,29.86,WNW,282,1.0,1.0,77,0.00,,---,0.00,VWS V14.01,2013-02-27 10:31:00,
2013-02-27 04:32:00,39.7,33.1,29.86,WNW,285,2.0,2.0,77,0.00,,---,0.00,VWS V14.01,2013-02-27 10:32:00,
2013-02-27 04:33:00,39.7,32.8,29.85,WNW,285,0.0,2.0,76,0.00,,---,0.00,VWS V14.01,2013-02-27 10:33:00,
2013-02-27 04:36:00,39.7,32.8,29.85,WNW,283,0.0,2.0,76,0.00,,---,0.00,VWS V14.01,2013-02-27 10:36:00,
2013-02-27 04:37:00,39.7,32.8,29.85,WNW,283,0.0,2.0,76,0.00,,---,0.00,VWS V14.01,2013-02-27 10:37:00,
2013-02-27 04:38:00,39.7,32.8,29.85,WNW,283,0.0,2.0,76,0.00,,---,0.00,VWS V14.01,2013-02-27 10:38:00,
2013-02-27 04:41:00,39.7,33.1,29.86,WNW,285,3.0,3.0,77,0.00,,---,0.00,VWS V14.01,2013-02-27 10:41:00,
2013-02-27 04:42:00,39.7,33.1,29.86,WNW,283,1.0,3.0,77,0.00,,---,0.00,VWS V14.01,2013-02-27 10:42:00,
2013-02-27 04:43:00,39.7,33.1,29.86,WNW,283,0.0,3.0,77,0.00,,---,0.00,VWS V14.01,2013-02-27 10:43:00,
2013-02-27 04:47:00,39.6,33.0,29.86,WNW,292,3.0,3.0,77,0.00,,---,0.00,VWS V14.01,2013-02-27 10:47:00,
2013-02-27 04:48:00,39.6,33.0,29.86,WNW,292,3.0,3.0,77,0.00,,---,0.00,VWS V14.01,2013-02-27 10:48:00,
2013-02-27 04:52:00,39.6,33.0,29.86,West,273,2.0,3.0,77,0.00,,---,0.00,VWS V14.01,2013-02-27 10:52:00,
2013-02-27 04:53:00,39.6,33.0,29.86,West,273,1.0,3.0,77,0.00,,---,0.00,VWS V14.01,2013-02-27 10:53:00,
2013-02-27 04:57:00,39.6,33.0,29.86,WNW,290,2.0,4.0,77,0.00,,---,0.00,VWS V14.01,2013-02-27 10:57:00,
2013-02-27 04:58:00,39.6,33.0,29.86,WNW,290,1.0,4.0,77,0.00,,---,0.00,VWS V14.01,2013-02-27 10:58:00,
2013-02-27 05:03:00,39.6,33.0,29.86,WNW,300,2.0,5.0,77,0.00,,---,0.00,VWS V14.01,2013-02-27 11:03:00,
2013-02-27 05:08:00,39.7,33.1,29.87,NW,314,10.0,10.0,77,0.00,,---,0.00,VWS V14.01,2013-02-27 11:08:00,
2013-02-27 05:13:00,39.7,33.1,29.87,WNW,296,5.0,10.0,77,0.00,,---,0.00,VWS V14.01,2013-02-27 11:13:00,
2013-02-27 05:14:00,39.7,33.1,29.87,NW,307,2.0,10.0,77,0.00,,---,0.00,VWS V14.01,2013-02-27 11:14:00,
2013-02-27 05:18:00,39.7,33.1,29.87,WNW,297,3.0,5.0,77,0.00,,---,0.00,VWS V14.01,2013-02-27 11:18:00,
2013-02-27 05:19:00,39.7,33.1,29.87,WNW,298,8.0,11.0,77,0.00,,---,0.00,VWS V14.01,2013-02-27 11:19:00,
2013-02-27 05:23:00,39.8,32.5,29.87,WNW,297,1.0,12.0,75,0.00,,---,0.00,VWS V14.01,2013-02-27 11:23:00,
2013-02-27 05:24:00,39.8,32.9,29.87,WNW,297,2.0,12.0,76,0.00,,---,0.00,VWS V14.01,2013-02-27 11:24:00,
2013-02-27 05:28:00,39.7,32.4,29.87,NW,305,5.0,12.0,75,0.00,,---,0.00,VWS V14.01,2013-02-27 11:28:00,
2013-02-27 05:29:00,39.7,32.4,29.87,WNW,302,6.0,12.0,75,0.00,,---,0.00,VWS V14.01,2013-02-27 11:29:00,
2013-02-27 05:33:00,39.7,32.8,29.88,WNW,284,9.0,9.0,76,0.00,,---,0.00,VWS V14.01,2013-02-27 11:33:00,
2013-02-27 05:34:00,39.7,32.4,29.88,WNW,290,5.0,9.0,75,0.00,,---,0.00,VWS V14.01,2013-02-27 11:34:00,
2013-02-27 05:38:00,39.7,32.1,29.88,WNW,300,0.0,9.0,74,0.00,,---,0.00,VWS V14.01,2013-02-27 11:38:00,
2013-02-27 05:39:00,39.7,32.1,29.88,WNW,299,0.0,9.0,74,0.00,,---,0.00,VWS V14.01,2013-02-27 11:39:00,
2013-02-27 05:43:00,39.7,31.8,29.88,NW,304,0.0,9.0,73,0.00,,---,0.00,VWS V14.01,2013-02-27 11:43:00,
2013-02-27 05:44:00,39.7,31.8,29.88,WNW,302,1.0,9.0,73,0.00,,---,0.00,VWS V14.01,2013-02-27 11:44:00,
2013-02-27 05:45:00,39.7,32.1,29.88,WNW,291,1.0,9.0,74,0.00,,---,0.00,VWS V14.01,2013-02-27 11:45:00,
2013-02-27 05:48:00,39.7,32.1,29.89,WNW,301,7.0,7.0,74,0.00,,---,0.00,VWS V14.01,2013-02-27 11:48:00,
2013-02-27 05:49:00,39.7,32.1,29.89,WNW,290,4.0,7.0,74,0.00,,---,0.00,VWS V14.01,2013-02-27 11:49:00,
2013-02-27 05:50:00,39.7,32.1,29.89,WNW,291,0.0,7.0,74,0.00,,---,0.00,VWS V14.01,2013-02-27 11:50:00,
2013-02-27 05:54:00,39.6,32.0,29.89,WNW,282,0.0,8.0,74,0.00,,---,0.00,VWS V14.01,2013-02-27 11:54:00,
2013-02-27 05:55:00,39.7,32.0,29.89,WNW,297,2.0,7.0,74,0.00,,,0.00,weatherlink.com 1.10,2013-02-27 11:55:00,
2013-02-27 05:59:00,39.6,32.0,29.89,WNW,294,1.0,8.0,74,0.00,,---,0.00,VWS V14.01,2013-02-27 11:59:00,
2013-02-27 06:00:00,39.6,31.7,29.89,NW,320,1.0,8.0,73,0.00,,---,0.00,VWS V14.01,2013-02-27 12:00:00,
2013-02-27 06:04:00,39.6,31.7,29.89,NW,318,3.0,9.0,73,0.00,,---,0.00,VWS V14.01,2013-02-27 12:04:00,
2013-02-27 06:05:00,39.6,31.7,29.89,WNW,300,4.0,9.0,73,0.00,,---,0.00,VWS V14.01,2013-02-27 12:05:00,
2013-02-27 06:09:00,39.6,31.7,29.89,NW,314,3.0,9.0,73,0.00,,---,0.00,VWS V14.01,2013-02-27 12:09:00,
2013-02-27 06:10:00,39.6,31.7,29.89,WNW,302,0.0,9.0,73,0.00,,---,0.00,VWS V14.01,2013-02-27 12:10:00,
2013-02-27 06:14:00,39.6,32.0,29.89,WNW,292,0.0,9.0,74,0.00,,---,0.00,VWS V14.01,2013-02-27 12:14:00,
2013-02-27 06:15:00,39.6,31.7,29.89,WNW,292,0.0,9.0,73,0.00,,---,0.00,VWS V14.01,2013-02-27 12:15:00,
2013-02-27 06:19:00,39.6,31.7,29.89,WNW,290,0.0,4.0,73,0.00,,---,0.00,VWS V14.01,2013-02-27 12:19:00,
2013-02-27 06:20:00,39.6,31.7,29.89,WNW,290,0.0,4.0,73,0.00,,---,0.00,VWS V14.01,2013-02-27 12:20:00,
2013-02-27 06:24:00,39.6,32.0,29.89,WNW,292,0.0,4.0,74,0.00,,---,0.00,VWS V14.01,2013-02-27 12:24:00,
2013-02-27 06:25:00,39.6,32.0,29.89,WNW,291,1.0,4.0,74,0.00,,---,0.00,VWS V14.01,2013-02-27 12:25:00,
2013-02-27 06:29:00,39.6,32.0,29.89,NW,305,0.0,4.0,74,0.00,,---,0.00,VWS V14.01,2013-02-27 12:29:00,
2013-02-27 06:30:00,39.6,32.0,29.89,NW,304,1.0,4.0,74,0.00,,---,0.00,VWS V14.01,2013-02-27 12:30:00,
2013-02-27 06:34:00,39.5,31.9,29.89,WNW,283,4.0,4.0,74,0.00,,---,0.00,VWS V14.01,2013-02-27 12:34:00,
2013-02-27 06:35:00,39.6,32.0,29.89,WNW,295,7.0,7.0,74,0.00,,---,0.00,VWS V14.01,2013-02-27 12:35:00,
2013-02-27 06:39:00,39.5,31.6,29.89,WNW,294,3.0,7.0,73,0.00,,---,0.00,VWS V14.01,2013-02-27 12:39:00,
2013-02-27 06:40:00,39.5,31.6,29.89,NW,305,2.0,7.0,73,0.00,,---,0.00,VWS V14.01,2013-02-27 12:40:00,
2013-02-27 06:44:00,39.6,31.7,29.89,West,275,2.0,7.0,73,0.00,,---,0.00,VWS V14.01,2013-02-27 12:44:00,
2013-02-27 06:45:00,39.5,31.6,29.89,West,278,1.0,7.0,73,0.00,,---,0.00,VWS V14.01,2013-02-27 12:45:00,
2013-02-27 06:49:00,39.5,31.6,29.89,NW,311,0.0,6.0,73,0.00,,---,0.00,VWS V14.01,2013-02-27 12:49:00,
2013-02-27 06:50:00,39.5,31.6,29.89,NW,309,1.0,6.0,73,0.00,,---,0.00,VWS V14.01,2013-02-27 12:50:00,
2013-02-27 06:54:00,39.5,31.6,29.89,WNW,288,2.0,6.0,73,0.00,,---,0.00,VWS V14.01,2013-02-27 12:54:00,
2013-02-27 06:55:00,39.5,31.2,29.89,WNW,303,1.0,6.0,72,0.00,,---,0.00,VWS V14.01,2013-02-27 12:55:00,
2013-02-27 06:59:00,39.5,31.2,29.90,WNW,292,0.0,6.0,72,0.00,,---,0.00,VWS V14.01,2013-02-27 12:59:00,
2013-02-27 07:00:00,39.5,31.2,29.90,WNW,292,0.0,6.0,72,0.00,,---,0.00,VWS V14.01,2013-02-27 13:00:00,
2013-02-27 07:04:00,39.5,31.2,29.90,WNW,298,1.0,3.0,72,0.00,,---,0.00,VWS V14.01,2013-02-27 13:04:00,
2013-02-27 07:05:00,39.5,31.2,29.90,WNW,298,0.0,3.0,72,0.00,,---,0.00,VWS V14.01,2013-02-27 13:05:00,
2013-02-27 07:06:00,39.5,31.2,29.90,WNW,299,0.0,3.0,72,0.00,,---,0.00,VWS V14.01,2013-02-27 13:06:00,
2013-02-27 07:10:00,39.6,31.3,29.90,WNW,291,0.0,6.0,72,0.00,,---,0.00,VWS V14.01,2013-02-27 13:10:00,
2013-02-27 07:11:00,39.6,31.3,29.90,WNW,291,1.0,6.0,72,0.00,,---,0.00,VWS V14.01,2013-02-27 13:11:00,
2013-02-27 07:15:00,39.6,31.3,29.90,WNW,291,1.0,6.0,72,0.00,,---,0.00,VWS V14.01,2013-02-27 13:15:00,
2013-02-27 07:16:00,39.6,31.3,29.90,West,280,1.0,2.0,72,0.00,,---,0.00,VWS V14.01,2013-02-27 13:16:00,
2013-02-27 07:20:00,39.7,31.4,29.90,WNW,297,0.0,3.0,72,0.00,,---,0.00,VWS V14.01,2013-02-27 13:20:00,
2013-02-27 07:22:00,39.7,31.4,29.90,WNW,298,0.0,3.0,72,0.00,,---,0.00,VWS V14.01,2013-02-27 13:22:00,
2013-02-27 07:25:00,39.7,31.8,29.90,WNW,290,0.0,3.0,73,0.00,,---,0.00,VWS V14.01,2013-02-27 13:25:00,
2013-02-27 07:26:00,39.7,31.8,29.91,West,277,0.0,3.0,73,0.00,,---,0.00,VWS V14.01,2013-02-27 13:26:00,
2013-02-27 07:27:00,39.8,31.9,29.91,WNW,284,1.0,4.0,73,0.00,,---,0.00,VWS V14.01,2013-02-27 13:27:00,
2013-02-27 07:30:00,39.8,31.5,29.91,NW,315,1.0,5.0,72,0.00,,---,0.00,VWS V14.01,2013-02-27 13:30:00,
2013-02-27 07:31:00,39.8,31.5,29.91,NW,315,0.0,0.0,72,0.00,,---,0.00,VWS V14.01,2013-02-27 13:31:00,
2013-02-27 07:32:00,39.8,31.5,29.91,WNW,284,5.0,5.0,72,0.00,,---,0.00,VWS V14.01,2013-02-27 13:32:00,
2013-02-27 07:35:00,39.9,32.0,29.91,NW,304,3.0,6.0,73,0.00,,---,0.00,VWS V14.01,2013-02-27 13:35:00,
2013-02-27 07:36:00,39.9,31.6,29.91,WNW,302,0.0,6.0,72,0.00,,---,0.00,VWS V14.01,2013-02-27 13:36:00,
2013-02-27 07:37:00,39.9,31.6,29.91,WNW,292,2.0,6.0,72,0.00,,---,0.00,VWS V14.01,2013-02-27 13:37:00,
2013-02-27 07:40:00,40.0,31.7,29.91,WNW,302,0.0,6.0,72,0.00,,---,0.00,VWS V14.01,2013-02-27 13:40:00,
2013-02-27 07:41:00,40.0,31.7,29.91,WNW,302,0.0,6.0,72,0.00,,---,0.00,VWS V14.01,2013-02-27 13:41:00,
2013-02-27 07:42:00,40.0,31.7,29.91,West,276,0.0,6.0,72,0.00,,---,0.00,VWS V14.01,2013-02-27 13:42:00,
2013-02-27 07:45:00,40.1,31.8,29.91,WNW,303,5.0,6.0,72,0.00,,---,0.00,VWS V14.01,2013-02-27 13:45:00,
2013-02-27 07:46:00,40.1,31.8,29.91,WNW,285,0.0,2.0,72,0.00,,---,0.00,VWS V14.01,2013-02-27 13:46:00,
2013-02-27 07:47:00,40.1,31.8,29.91,WNW,290,3.0,5.0,72,0.00,,---,0.00,VWS V14.01,2013-02-27 13:47:00,
2013-02-27 07:50:00,40.1,31.8,29.91,WNW,292,1.0,5.0,72,0.00,,---,0.00,VWS V14.01,2013-02-27 13:50:00,
2013-02-27 07:51:00,40.1,31.8,29.91,WNW,301,1.0,5.0,72,0.00,,---,0.00,VWS V14.01,2013-02-27 13:51:00,
2013-02-27 07:52:00,40.1,31.8,29.91,WNW,294,5.0,11.0,72,0.00,,---,0.00,VWS V14.01,2013-02-27 13:52:00,
2013-02-27 07:55:00,40.1,31.8,29.91,WNW,283,1.0,11.0,72,0.00,,---,0.00,VWS V14.01,2013-02-27 13:55:00,
2013-02-27 07:56:00,40.1,31.8,29.92,NW,307,2.0,11.0,72,0.00,,---,0.00,VWS V14.01,2013-02-27 13:56:00,
2013-02-27 07:57:00,40.1,31.8,29.92,NW,307,1.0,11.0,72,0.00,,---,0.00,VWS V14.01,2013-02-27 13:57:00,
2013-02-27 07:58:00,40.1,31.8,29.92,NW,307,0.0,11.0,72,0.00,,---,0.00,VWS V14.01,2013-02-27 13:58:00,
2013-02-27 08:00:00,40.2,31.9,29.92,WNW,290,0.0,11.0,72,0.00,,---,0.00,VWS V14.01,2013-02-27 14:00:00,
2013-02-27 08:02:00,40.2,31.9,29.92,WNW,287,1.0,2.0,72,0.00,,---,0.00,VWS V14.01,2013-02-27 14:02:00,
2013-02-27 08:03:00,40.3,32.0,29.91,West,278,0.0,2.0,72,0.00,,---,0.00,VWS V14.01,2013-02-27 14:03:00,
2013-02-27 08:05:00,40.3,32.0,29.92,NW,323,0.0,2.0,72,0.00,,---,0.00,VWS V14.01,2013-02-27 14:05:00,
2013-02-27 08:07:00,40.3,32.0,29.91,West,278,0.0,2.0,72,0.00,,---,0.00,VWS V14.01,2013-02-27 14:07:00,
2013-02-27 08:08:00,40.4,32.1,29.91,WNW,284,2.0,2.0,72,0.00,,---,0.00,VWS V14.01,2013-02-27 14:08:00,
2013-02-27 08:10:00,40.4,32.1,29.92,WNW,288,0.0,3.0,72,0.00,,---,0.00,VWS V14.01,2013-02-27 14:10:00,
2013-02-27 08:12:00,40.4,32.4,29.92,WNW,285,0.0,5.0,73,0.00,,---,0.00,VWS V14.01,2013-02-27 14:12:00,
2013-02-27 08:13:00,40.5,32.5,29.92,WNW,285,0.0,5.0,73,0.00,,---,0.00,VWS V14.01,2013-02-27 14:13:00,
2013-02-27 08:15:00,40.5,32.2,29.92,WNW,286,1.0,1.0,72,0.00,,---,0.00,VWS V14.01,2013-02-27 14:15:00,
2013-02-27 08:17:00,40.6,32.3,29.92,WNW,291,1.0,4.0,72,0.00,,---,0.00,VWS V14.01,2013-02-27 14:17:00,
2013-02-27 08:18:00,40.6,32.6,29.92,West,281,1.0,4.0,73,0.00,,---,0.00,VWS V14.01,2013-02-27 14:18:00,
2013-02-27 08:20:00,40.6,32.3,29.92,West,281,7.0,7.0,72,0.00,,---,0.00,VWS V14.01,2013-02-27 14:20:00,
2013-02-27 08:22:00,40.6,32.3,29.92,NW,304,5.0,7.0,72,0.00,,---,0.00,VWS V14.01,2013-02-27 14:22:00,
2013-02-27 08:23:00,40.6,32.6,29.92,WNW,290,1.0,7.0,73,0.00,,---,0.00,VWS V14.01,2013-02-27 14:23:00,
2013-02-27 08:25:00,40.6,32.6,29.92,WNW,297,0.0,7.0,73,0.00,,---,0.00,VWS V14.01,2013-02-27 14:25:00,
2013-02-27 08:27:00,40.6,32.6,29.92,WNW,291,0.0,7.0,73,0.00,,---,0.00,VWS V14.01,2013-02-27 14:27:00,
2013-02-27 08:28:00,40.6,32.3,29.92,WNW,292,1.0,7.0,72,0.00,,---,0.00,VWS V14.01,2013-02-27 14:28:00,
2013-02-27 08:30:00,40.7,32.4,29.93,NW,310,6.0,6.0,72,0.00,,---,0.00,VWS V14.01,2013-02-27 14:30:00,
2013-02-27 08:33:00,40.7,32.7,29.93,WNW,287,1.0,6.0,73,0.00,,---,0.00,VWS V14.01,2013-02-27 14:33:00,
2013-02-27 08:35:00,40.7,32.7,29.93,NW,307,2.0,6.0,73,0.00,,---,0.00,VWS V14.01,2013-02-27 14:35:00,
2013-02-27 08:38:00,40.7,32.7,29.93,WNW,291,3.0,6.0,73,0.00,,---,0.00,VWS V14.01,2013-02-27 14:38:00,
2013-02-27 08:39:00,40.7,32.7,29.93,WNW,292,2.0,6.0,73,0.00,,---,0.00,VWS V14.01,2013-02-27 14:39:00,
2013-02-27 08:40:00,40.7,32.7,29.93,WNW,282,0.0,6.0,73,0.00,,---,0.00,VWS V14.01,2013-02-27 14:40:00,
2013-02-27 08:43:00,40.8,32.8,29.93,WNW,302,2.0,6.0,73,0.00,,---,0.00,VWS V14.01,2013-02-27 14:43:00,
2013-02-27 08:44:00,40.8,32.5,29.93,WNW,298,1.0,6.0,72,0.00,,---,0.00,VWS V14.01,2013-02-27 14:44:00,
2013-02-27 08:45:00,40.8,32.8,29.93,NW,325,3.0,3.0,73,0.00,,---,0.00,VWS V14.01,2013-02-27 14:45:00,
2013-02-27 08:48:00,40.8,32.5,29.93,NW,308,1.0,3.0,72,0.00,,---,0.00,VWS V14.01,2013-02-27 14:48:00,
2013-02-27 08:49:00,40.8,32.5,29.93,West,275,3.0,5.0,72,0.00,,---,0.00,VWS V14.01,2013-02-27 14:49:00,
2013-02-27 08:50:00,40.8,32.8,29.93,NW,307,2.0,5.0,73,0.00,,---,0.00,VWS V14.01,2013-02-27 14:50:00,
2013-02-27 08:53:00,40.7,32.7,29.93,West,278,1.0,5.0,73,0.00,,---,0.00,VWS V14.01,2013-02-27 14:53:00,
2013-02-27 08:54:00,40.7,32.7,29.93,West,277,1.0,5.0,73,0.00,,---,0.00,VWS V14.01,2013-02-27 14:54:00,
2013-02-27 08:56:00,40.7,32.7,29.93,West,278,6.0,6.0,73,0.00,,---,0.00,VWS V14.01,2013-02-27 14:56:00,
2013-02-27 08:58:00,40.8,32.8,29.93,NW,306,2.0,9.0,73,0.00,,---,0.00,VWS V14.01,2013-02-27 14:58:00,
2013-02-27 08:59:00,40.7,32.7,29.93,WNW,282,5.0,9.0,73,0.00,,---,0.00,VWS V14.01,2013-02-27 14:59:00,
2013-02-27 09:01:00,40.7,33.1,29.93,WNW,287,7.0,7.0,74,0.00,,---,0.00,VWS V14.01,2013-02-27 15:01:00,
2013-02-27 09:04:00,40.7,33.1,29.93,WNW,301,3.0,7.0,74,0.00,,---,0.00,VWS V14.01,2013-02-27 15:04:00,
2013-02-27 09:06:00,40.7,33.1,29.93,WNW,297,4.0,7.0,74,0.00,,---,0.00,VWS V14.01,2013-02-27 15:06:00,
2013-02-27 09:09:00,40.7,33.1,29.93,WNW,297,1.0,7.0,74,0.00,,---,0.00,VWS V14.01,2013-02-27 15:09:00,
2013-02-27 09:10:00,40.7,33.1,29.93,WNW,296,0.0,7.0,74,0.00,,---,0.00,VWS V14.01,2013-02-27 15:10:00,
2013-02-27 09:11:00,40.8,33.5,29.93,WNW,285,1.0,7.0,75,0.00,,---,0.00,VWS V14.01,2013-02-27 15:11:00,
2013-02-27 09:14:00,40.9,33.6,29.93,West,270,3.0,7.0,75,0.00,,---,0.00,VWS V14.01,2013-02-27 15:14:00,
2013-02-27 09:15:00,40.9,33.3,29.93,WSW,255,4.0,7.0,74,0.00,,---,0.00,VWS V14.01,2013-02-27 15:15:00,
2013-02-27 09:16:00,40.9,33.3,29.93,WSW,247,4.0,5.0,74,0.00,,---,0.00,VWS V14.01,2013-02-27 15:16:00,
2013-02-27 09:19:00,41.1,33.8,29.93,West,271,3.0,6.0,75,0.00,,---,0.00,VWS V14.01,2013-02-27 15:19:00,
2013-02-27 09:20:00,41.1,33.8,29.93,WNW,290,2.0,6.0,75,0.00,,---,0.00,VWS V14.01,2013-02-27 15:20:00,
2013-02-27 09:22:00,41.3,34.0,29.93,WNW,290,5.0,6.0,75,0.00,,---,0.00,VWS V14.01,2013-02-27 15:22:00,
2013-02-27 09:24:00,41.3,34.0,29.93,West,278,5.0,6.0,75,0.00,,---,0.00,VWS V14.01,2013-02-27 15:24:00,
2013-02-27 09:25:00,41.3,33.7,29.93,WNW,287,11.0,12.0,74,0.00,,---,0.00,VWS V14.01,2013-02-27 15:25:00,
2013-02-27 09:27:00,41.2,33.5,29.93,WNW,300,2.0,12.0,74,0.00,,---,0.00,VWS V14.01,2013-02-27 15:27:00,
2013-02-27 09:29:00,41.3,34.0,29.94,WNW,282,6.0,12.0,75,0.00,,---,0.00,VWS V14.01,2013-02-27 15:29:00,
2013-02-27 09:30:00,41.2,33.5,29.94,NW,305,5.0,12.0,74,0.00,,---,0.00,VWS V14.01,2013-02-27 15:30:00,
2013-02-27 09:32:00,41.3,34.0,29.94,WNW,298,8.0,8.0,75,0.00,,---,0.00,VWS V14.01,2013-02-27 15:32:00,
2013-02-27 09:34:00,41.2,34.2,29.94,NW,308,5.0,9.0,76,0.00,,---,0.00,VWS V14.01,2013-02-27 15:34:00,
2013-02-27 09:35:00,41.2,34.2,29.94,West,276,2.0,9.0,76,0.00,,---,0.00,VWS V14.01,2013-02-27 15:35:00,
2013-02-27 09:37:00,41.2,34.2,29.94,WNW,285,4.0,9.0,76,0.00,,---,0.00,VWS V14.01,2013-02-27 15:37:00,
2013-02-27 09:39:00,41.2,34.2,29.94,WSW,251,5.0,9.0,76,0.00,,---,0.00,VWS V14.01,2013-02-27 15:39:00,
2013-02-27 09:40:00,41.2,34.2,29.94,WNW,285,2.0,9.0,76,0.00,,---,0.00,VWS V14.01,2013-02-27 15:40:00,
2013-02-27 09:42:00,41.2,33.9,29.93,NW,304,5.0,9.0,75,0.00,,---,0.00,VWS V14.01,2013-02-27 15:42:00,
2013-02-27 09:44:00,41.2,34.2,29.94,WNW,291,8.0,9.0,76,0.00,,---,0.00,VWS V14.01,2013-02-27 15:44:00,
2013-02-27 09:45:00,41.1,33.8,29.94,WNW,300,7.0,9.0,75,0.00,,---,0.00,VWS V14.01,2013-02-27 15:45:00,
2013-02-27 09:46:00,41.1,34.1,29.94,West,271,6.0,6.0,76,0.00,,---,0.00,VWS V14.01,2013-02-27 15:46:00,
2013-02-27 09:47:00,41.1,34.1,29.93,WNW,291,4.0,6.0,76,0.00,,---,0.00,VWS V14.01,2013-02-27 15:47:00,
2013-02-27 09:49:00,41.1,34.1,29.93,WNW,294,7.0,10.0,76,0.00,,---,0.00,VWS V14.01,2013-02-27 15:49:00,
2013-02-27 09:50:00,41.1,34.1,29.93,WNW,294,5.0,10.0,76,0.00,,---,0.00,VWS V14.01,2013-02-27 15:50:00,
2013-02-27 09:51:00,41.1,34.5,29.94,West,278,0.0,10.0,77,0.00,,---,0.00,VWS V14.01,2013-02-27 15:51:00,
2013-02-27 09:52:00,41.1,34.5,29.94,West,264,8.0,10.0,77,0.00,,---,0.00,VWS V14.01,2013-02-27 15:52:00,
2013-02-27 09:54:00,41.1,34.1,29.94,WNW,285,5.0,10.0,76,0.00,,---,0.00,VWS V14.01,2013-02-27 15:54:00,
2013-02-27 09:55:00,41.1,34.1,29.94,WNW,285,7.0,10.0,76,0.00,,---,0.00,VWS V14.01,2013-02-27 15:55:00,
2013-02-27 09:56:00,41.1,34.1,29.94,WNW,285,5.0,10.0,76,0.00,,---,0.00,VWS V14.01,2013-02-27 15:56:00,
2013-02-27 09:57:00,41.1,34.1,29.94,NW,305,6.0,10.0,76,0.00,,---,0.00,VWS V14.01,2013-02-27 15:57:00,
2013-02-27 09:59:00,41.2,33.9,29.94,WNW,298,7.0,10.0,75,0.00,,---,0.00,VWS V14.01,2013-02-27 15:59:00,
2013-02-27 10:00:00,41.1,33.8,29.94,NW,307,6.0,12.0,75,0.00,,---,0.00,VWS V14.01,2013-02-27 16:00:00,
2013-02-27 10:01:00,41.1,33.8,29.94,NW,304,8.0,12.0,75,0.00,,---,0.00,VWS V14.01,2013-02-27 16:01:00,
2013-02-27 10:02:00,41.1,33.8,29.94,WNW,295,4.0,12.0,75,0.00,,---,0.00,VWS V14.01,2013-02-27 16:02:00,
2013-02-27 10:04:00,41.2,33.9,29.94,WNW,284,7.0,12.0,75,0.00,,---,0.00,VWS V14.01,2013-02-27 16:04:00,
2013-02-27 10:05:00,41.2,33.9,29.94,West,270,5.0,12.0,75,0.00,,---,0.00,VWS V14.01,2013-02-27 16:05:00,
2013-02-27 10:07:00,41.2,33.9,29.94,West,262,7.0,12.0,75,0.00,,---,0.00,VWS V14.01,2013-02-27 16:07:00,
2013-02-27 10:10:00,41.3,34.0,29.94,WNW,283,11.0,13.0,75,0.00,,---,0.00,VWS V14.01,2013-02-27 16:10:00,
2013-02-27 10:12:00,41.3,33.7,29.94,WNW,289,10.0,13.0,74,0.00,,---,0.00,VWS V14.01,2013-02-27 16:12:00,
2013-02-27 10:15:00,41.3,33.3,29.94,WNW,285,7.0,13.0,73,0.00,,---,0.00,VWS V14.01,2013-02-27 16:15:00,
2013-02-27 10:17:00,41.4,33.4,29.94,West,278,3.0,8.0,73,0.00,,---,0.00,VWS V14.01,2013-02-27 16:17:00,
2013-02-27 10:20:00,41.5,33.5,29.94,NW,311,8.0,10.0,73,0.00,,---,0.00,VWS V14.01,2013-02-27 16:20:00,
2013-02-27 10:22:00,41.6,33.6,29.95,WNW,302,4.0,12.0,73,0.00,,---,0.00,VWS V14.01,2013-02-27 16:22:00,
2013-02-27 10:23:00,41.6,33.6,29.95,WNW,284,11.0,12.0,73,0.00,,---,0.00,VWS V14.01,2013-02-27 16:23:00,
2013-02-27 10:25:00,41.7,33.7,29.95,West,269,1.0,12.0,73,0.00,,---,0.00,VWS V14.01,2013-02-27 16:25:00,
2013-02-27 10:27:00,41.8,33.8,29.94,West,280,10.0,12.0,73,0.00,,---,0.00,VWS V14.01,2013-02-27 16:27:00,
2013-02-27 10:28:00,41.9,33.5,29.94,WSW,257,8.0,12.0,72,0.00,,---,0.00,VWS V14.01,2013-02-27 16:28:00,
2013-02-27 10:30:00,42.1,34.1,29.94,WNW,290,3.0,12.0,73,0.00,,---,0.00,VWS V14.01,2013-02-27 16:30:00,
2013-02-27 10:32:00,42.3,34.3,29.94,West,273,3.0,9.0,73,0.00,,---,0.00,VWS V14.01,2013-02-27 16:32:00,
2013-02-27 10:33:00,42.4,34.7,29.94,West,261,9.0,9.0,74,0.00,,---,0.00,VWS V14.01,2013-02-27 16:33:00,
2013-02-27 10:35:00,42.5,34.1,29.94,West,280,6.0,10.0,72,0.00,,---,0.00,VWS V14.01,2013-02-27 16:35:00,
2013-02-27 10:37:00,42.5,33.8,29.94,WNW,290,13.0,13.0,71,0.00,,---,0.00,VWS V14.01,2013-02-27 16:37:00,
2013-02-27 10:38:00,42.4,33.7,29.94,West,271,6.0,13.0,71,0.00,,---,0.00,VWS V14.01,2013-02-27 16:38:00,
2013-02-27 10:40:00,42.3,33.9,29.94,West,259,7.0,13.0,72,0.00,,---,0.00,VWS V14.01,2013-02-27 16:40:00,
2013-02-27 10:41:00,42.3,33.9,29.94,West,272,10.0,13.0,72,0.00,,---,0.00,VWS V14.01,2013-02-27 16:41:00,
2013-02-27 10:42:00,42.3,33.9,29.94,WNW,285,7.0,13.0,72,0.00,,---,0.00,VWS V14.01,2013-02-27 16:42:00,
2013-02-27 10:43:00,42.3,33.9,29.94,WNW,297,6.0,13.0,72,0.00,,---,0.00,VWS V14.01,2013-02-27 16:43:00,
2013-02-27 10:46:00,42.3,33.9,29.94,West,266,7.0,8.0,72,0.00,,---,0.00,VWS V14.01,2013-02-27 16:46:00,
2013-02-27 10:47:00,42.3,33.6,29.94,WNW,295,7.0,13.0,71,0.00,,---,0.00,VWS V14.01,2013-02-27 16:47:00,
2013-02-27 10:48:00,42.3,33.6,29.94,WNW,295,5.0,13.0,71,0.00,,---,0.00,VWS V14.01,2013-02-27 16:48:00,
2013-02-27 10:51:00,42.5,33.8,29.94,NW,315,2.0,13.0,71,0.00,,---,0.00,VWS V14.01,2013-02-27 16:51:00,
2013-02-27 10:52:00,42.5,34.1,29.95,NW,314,7.0,13.0,72,0.00,,---,0.00,VWS V14.01,2013-02-27 16:52:00,
2013-02-27 10:53:00,42.6,34.2,29.95,WNW,283,5.0,13.0,72,0.00,,---,0.00,VWS V14.01,2013-02-27 16:53:00,
2013-02-27 10:56:00,42.8,34.1,29.95,WNW,301,10.0,13.0,71,0.00,,---,0.00,VWS V14.01,2013-02-27 16:56:00,
2013-02-27 10:57:00,42.8,34.1,29.95,WNW,301,9.0,13.0,71,0.00,,---,0.00,VWS V14.01,2013-02-27 16:57:00,
2013-02-27 10:58:00,42.8,34.1,29.95,SW,227,4.0,13.0,71,0.00,,---,0.00,VWS V14.01,2013-02-27 16:58:00,
2013-02-27 11:01:00,42.8,33.7,29.94,WNW,285,12.0,15.0,70,0.00,,---,0.00,VWS V14.01,2013-02-27 17:01:00,
2013-02-27 11:02:00,42.8,33.7,29.94,WNW,300,5.0,15.0,70,0.00,,---,0.00,VWS V14.01,2013-02-27 17:02:00,
2013-02-27 11:03:00,42.8,33.7,29.94,WNW,299,2.0,15.0,70,0.00,,---,0.00,VWS V14.01,2013-02-27 17:03:00,
2013-02-27 11:06:00,42.8,33.7,29.95,NW,305,3.0,15.0,70,0.00,,---,0.00,VWS V14.01,2013-02-27 17:06:00,
2013-02-27 11:07:00,42.8,34.1,29.95,WNW,290,7.0,15.0,71,0.00,,---,0.00,VWS V14.01,2013-02-27 17:07:00,
2013-02-27 11:09:00,42.8,34.1,29.95,West,276,3.0,15.0,71,0.00,,---,0.00,VWS V14.01,2013-02-27 17:09:00,
2013-02-27 11:11:00,42.9,34.2,29.95,WNW,300,9.0,15.0,71,0.00,,---,0.00,VWS V14.01,2013-02-27 17:11:00,
2013-02-27 11:12:00,42.8,33.7,29.95,WNW,290,7.0,15.0,70,0.00,,---,0.00,VWS V14.01,2013-02-27 17:12:00,
2013-02-27 11:14:00,42.8,34.1,29.95,WNW,285,4.0,15.0,71,0.00,,---,0.00,VWS V14.01,2013-02-27 17:14:00,
2013-02-27 11:16:00,42.8,34.1,29.95,WNW,290,8.0,12.0,71,0.00,,---,0.00,VWS V14.01,2013-02-27 17:16:00,
2013-02-27 11:17:00,42.8,33.7,29.95,WNW,294,8.0,12.0,70,0.00,,---,0.00,VWS V14.01,2013-02-27 17:17:00,
2013-02-27 11:18:00,42.8,33.7,29.95,WNW,287,11.0,13.0,70,0.00,,---,0.00,VWS V14.01,2013-02-27 17:18:00,
2013-02-27 11:19:00,42.7,33.6,29.95,NW,313,4.0,13.0,70,0.00,,---,0.00,VWS V14.01,2013-02-27 17:19:00,
2013-02-27 11:21:00,42.8,34.1,29.94,WNW,288,7.0,13.0,71,0.00,,---,0.00,VWS V14.01,2013-02-27 17:21:00,
2013-02-27 11:22:00,42.8,34.1,29.94,WNW,302,7.0,13.0,71,0.00,,---,0.00,VWS V14.01,2013-02-27 17:22:00,
2013-02-27 11:23:00,42.9,34.2,29.94,WNW,292,8.0,13.0,71,0.00,,---,0.00,VWS V14.01,2013-02-27 17:23:00,
2013-02-27 11:24:00,42.9,34.2,29.95,WNW,299,9.0,13.0,71,0.00,,---,0.00,VWS V14.01,2013-02-27 17:24:00,
2013-02-27 11:27:00,43.0,33.9,29.94,WNW,295,12.0,13.0,70,0.00,,---,0.00,VWS V14.01,2013-02-27 17:27:00,
2013-02-27 11:28:00,43.0,33.9,29.94,NW,314,10.0,16.0,70,0.00,,---,0.00,VWS V14.01,2013-02-27 17:28:00,
2013-02-27 11:29:00,43.0,34.2,29.94,West,259,8.0,16.0,71,0.00,,---,0.00,VWS V14.01,2013-02-27 17:29:00,
2013-02-27 11:32:00,42.9,33.8,29.94,WNW,292,5.0,11.0,70,0.00,,---,0.00,VWS V14.01,2013-02-27 17:32:00,
2013-02-27 11:33:00,43.0,34.2,29.94,NW,306,4.0,11.0,71,0.00,,---,0.00,VWS V14.01,2013-02-27 17:33:00,
2013-02-27 11:34:00,43.1,34.3,29.94,WNW,297,6.0,12.0,71,0.00,,---,0.00,VWS V14.01,2013-02-27 17:34:00,
2013-02-27 11:37:00,43.3,34.2,29.94,WNW,303,12.0,14.0,70,0.00,,---,0.00,VWS V14.01,2013-02-27 17:37:00,
2013-02-27 11:38:00,43.4,34.3,29.94,WNW,283,8.0,14.0,70,0.00,,---,0.00,VWS V14.01,2013-02-27 17:38:00,
2013-02-27 11:39:00,43.4,34.3,29.94,WNW,301,10.0,14.0,70,0.00,,---,0.00,VWS V14.01,2013-02-27 17:39:00,
2013-02-27 11:42:00,43.3,34.2,29.95,WNW,301,5.0,14.0,70,0.00,,---,0.00,VWS V14.01,2013-02-27 17:42:00,
2013-02-27 11:43:00,43.3,34.2,29.95,West,276,6.0,14.0,70,0.00,,---,0.00,VWS V14.01,2013-02-27 17:43:00,
2013-02-27 11:44:00,43.4,34.6,29.95,SW,233,8.0,15.0,71,0.00,,---,0.00,VWS V14.01,2013-02-27 17:44:00,
2013-02-27 11:47:00,43.6,34.5,29.95,WNW,295,8.0,9.0,70,0.00,,---,0.00,VWS V14.01,2013-02-27 17:47:00,
2013-02-27 11:48:00,43.7,34.9,29.94,West,279,10.0,12.0,71,0.00,,---,0.00,VWS V14.01,2013-02-27 17:48:00,
2013-02-27 11:49:00,43.7,34.2,29.94,WNW,300,10.0,14.0,69,0.00,,---,0.00,VWS V14.01,2013-02-27 17:49:00,
2013-02-27 11:52:00,43.7,34.2,29.94,WNW,284,7.0,14.0,69,0.00,,---,0.00,VWS V14.01,2013-02-27 17:52:00,
2013-02-27 11:53:00,43.7,34.2,29.94,SW,234,8.0,14.0,69,0.00,,---,0.00,VWS V14.01,2013-02-27 17:53:00,
2013-02-27 11:54:00,43.8,34.7,29.94,WNW,295,10.0,14.0,70,0.00,,---,0.00,VWS V14.01,2013-02-27 17:54:00,
2013-02-27 11:59:00,44.0,34.9,29.94,West,270,7.0,14.0,70,0.00,,---,0.00,VWS V14.01,2013-02-27 17:59:00,
2013-02-27 12:04:00,44.3,34.8,29.94,SSW,204,4.0,11.0,69,0.00,,---,0.00,VWS V14.01,2013-02-27 18:04:00,
2013-02-27 12:09:00,44.7,35.2,29.94,WNW,286,8.0,15.0,69,0.00,,---,0.00,VWS V14.01,2013-02-27 18:09:00,
2013-02-27 12:14:00,44.5,34.6,29.94,NW,304,12.0,15.0,68,0.00,,---,0.00,VWS V14.01,2013-02-27 18:14:00,
2013-02-27 12:19:00,44.4,35.2,29.93,West,273,11.0,12.0,70,0.00,,---,0.00,VWS V14.01,2013-02-27 18:19:00,
2013-02-27 12:24:00,44.2,34.7,29.93,NW,308,9.0,14.0,69,0.00,,---,0.00,VWS V14.01,2013-02-27 18:24:00,
2013-02-27 12:29:00,44.1,35.0,29.93,NW,304,9.0,14.0,70,0.00,,---,0.00,VWS V14.01,2013-02-27 18:29:00,
2013-02-27 12:34:00,43.7,34.9,29.93,WNW,290,7.0,14.0,71,0.00,,---,0.00,VWS V14.01,2013-02-27 18:34:00,
2013-02-27 12:35:00,43.7,35.3,29.93,WNW,301,5.0,14.0,72,0.00,,---,0.00,VWS V14.01,2013-02-27 18:35:00,
2013-02-27 12:39:00,43.7,35.3,29.93,WNW,288,8.0,14.0,72,0.00,,---,0.00,VWS V14.01,2013-02-27 18:39:00,
2013-02-27 12:40:00,43.7,35.3,29.93,WNW,285,1.0,14.0,72,0.00,,---,0.00,VWS V14.01,2013-02-27 18:40:00,
2013-02-27 12:44:00,44.0,35.9,29.92,WNW,295,10.0,14.0,73,0.00,,---,0.00,VWS V14.01,2013-02-27 18:44:00,
2013-02-27 12:45:00,44.0,35.9,29.92,WNW,294,6.0,14.0,73,0.00,,---,0.00,VWS V14.01,2013-02-27 18:45:00,
2013-02-27 12:49:00,44.2,35.8,29.92,SSW,211,7.0,10.0,72,0.00,,---,0.00,VWS V14.01,2013-02-27 18:49:00,
2013-02-27 12:50:00,44.2,35.8,29.92,WNW,298,5.0,10.0,72,0.00,,---,0.00,VWS V14.01,2013-02-27 18:50:00,
2013-02-27 12:54:00,44.1,35.3,29.92,WNW,285,14.0,15.0,71,0.00,,---,0.00,VWS V14.01,2013-02-27 18:54:00,
2013-02-27 12:55:00,44.0,34.9,29.92,WNW,292,10.0,15.0,70,0.00,,---,0.00,VWS V14.01,2013-02-27 18:55:00,
2013-02-27 12:59:00,43.9,35.1,29.92,West,261,11.0,15.0,71,0.00,,---,0.00,VWS V14.01,2013-02-27 18:59:00,
2013-02-27 13:00:00,43.9,35.1,29.92,WNW,302,6.0,15.0,71,0.00,,---,0.00,VWS V14.01,2013-02-27 19:00:00,
2013-02-27 13:05:00,44.0,35.2,29.92,WNW,295,8.0,12.0,71,0.00,,---,0.00,VWS V14.01,2013-02-27 19:05:00,
2013-02-27 13:10:00,44.0,35.2,29.91,West,261,6.0,13.0,71,0.00,,---,0.00,VWS V14.01,2013-02-27 19:10:00,
2013-02-27 13:15:00,44.2,35.8,29.92,WNW,299,2.0,13.0,72,0.00,,---,0.00,VWS V14.01,2013-02-27 19:15:00,
2013-02-27 13:20:00,44.3,35.5,29.92,WSW,245,8.0,13.0,71,0.00,,---,0.00,VWS V14.01,2013-02-27 19:20:00,
2013-02-27 13:25:00,44.6,35.8,29.91,WNW,296,9.0,13.0,71,0.00,,---,0.00,VWS V14.01,2013-02-27 19:25:00,
2013-02-27 13:30:00,44.9,35.7,29.92,WNW,300,10.0,15.0,70,0.00,,---,0.00,VWS V14.01,2013-02-27 19:30:00,
2013-02-27 13:31:00,44.9,35.4,29.92,West,275,9.0,12.0,69,0.00,,---,0.00,VWS V14.01,2013-02-27 19:31:00,
2013-02-27 13:35:00,44.8,35.6,29.91,WSW,253,6.0,12.0,70,0.00,,---,0.00,VWS V14.01,2013-02-27 19:35:00,
2013-02-27 13:36:00,44.8,35.6,29.91,WNW,297,9.0,12.0,70,0.00,,---,0.00,VWS V14.01,2013-02-27 19:36:00,
2013-02-27 13:40:00,45.0,36.2,29.91,WNW,297,4.0,12.0,71,0.00,,---,0.00,VWS V14.01,2013-02-27 19:40:00,
2013-02-27 13:41:00,45.1,36.3,29.91,West,271,6.0,12.0,71,0.00,,---,0.00,VWS V14.01,2013-02-27 19:41:00,
2013-02-27 13:45:00,45.4,35.8,29.91,NW,311,4.0,10.0,69,0.00,,---,0.00,VWS V14.01,2013-02-27 19:45:00,
2013-02-27 13:46:00,45.4,35.8,29.91,West,278,14.0,14.0,69,0.00,,---,0.00,VWS V14.01,2013-02-27 19:46:00,
2013-02-27 13:50:00,45.6,36.4,29.91,WNW,285,4.0,14.0,70,0.00,,---,0.00,VWS V14.01,2013-02-27 19:50:00,
2013-02-27 13:51:00,45.6,36.4,29.91,WNW,283,1.0,14.0,70,0.00,,---,0.00,VWS V14.01,2013-02-27 19:51:00,
2013-02-27 13:55:00,45.4,35.8,29.91,West,280,5.0,14.0,69,0.00,,---,0.00,VWS V14.01,2013-02-27 19:55:00,
2013-02-27 13:56:00,45.3,35.7,29.91,WSW,250,8.0,14.0,69,0.00,,---,0.00,VWS V14.01,2013-02-27 19:56:00,
2013-02-27 13:57:00,45.3,35.7,29.91,NNW,337,7.0,14.0,69,0.00,,---,0.00,VWS V14.01,2013-02-27 19:57:00,
2013-02-27 14:00:00,45.3,35.7,29.91,WNW,282,5.0,6.0,69,0.00,,---,0.00,VWS V14.01,2013-02-27 20:00:00,
2013-02-27 14:01:00,45.3,35.7,29.91,WNW,284,4.0,6.0,69,0.00,,---,0.00,VWS V14.01,2013-02-27 20:01:00,
2013-02-27 14:02:00,45.4,36.2,29.91,WNW,297,6.0,6.0,70,0.00,,---,0.00,VWS V14.01,2013-02-27 20:02:00,
2013-02-27 14:05:00,45.5,36.3,29.92,NW,315,9.0,12.0,70,0.00,,---,0.00,VWS V14.01,2013-02-27 20:05:00,
2013-02-27 14:06:00,45.4,36.2,29.92,NW,307,4.0,12.0,70,0.00,,---,0.00,VWS V14.01,2013-02-27 20:06:00,
2013-02-27 14:07:00,45.4,35.8,29.92,NW,304,9.0,14.0,69,0.00,,---,0.00,VWS V14.01,2013-02-27 20:07:00,
2013-02-27 14:11:00,45.1,35.9,29.92,WNW,285,9.0,14.0,70,0.00,,---,0.00,VWS V14.01,2013-02-27 20:11:00,
2013-02-27 14:12:00,45.0,35.8,29.92,WNW,302,8.0,14.0,70,0.00,,---,0.00,VWS V14.01,2013-02-27 20:12:00,
2013-02-27 14:16:00,44.8,36.0,29.92,WNW,297,9.0,10.0,71,0.00,,---,0.00,VWS V14.01,2013-02-27 20:16:00,
2013-02-27 14:17:00,44.8,36.0,29.92,WNW,301,13.0,13.0,71,0.00,,---,0.00,VWS V14.01,2013-02-27 20:17:00,
2013-02-27 14:21:00,44.8,36.3,29.92,WNW,303,4.0,13.0,72,0.00,,---,0.00,VWS V14.01,2013-02-27 20:21:00,
2013-02-27 14:22:00,44.9,36.4,29.92,WNW,285,5.0,13.0,72,0.00,,---,0.00,VWS V14.01,2013-02-27 20:22:00,
2013-02-27 14:26:00,45.0,36.2,29.92,NW,321,6.0,13.0,71,0.00,,---,0.00,VWS V14.01,2013-02-27 20:26:00,
2013-02-27 14:27:00,45.0,36.2,29.92,WNW,294,3.0,13.0,71,0.00,,---,0.00,VWS V14.01,2013-02-27 20:27:00,
2013-02-27 14:31:00,44.9,36.1,29.92,WNW,285,4.0,7.0,71,0.00,,---,0.00,VWS V14.01,2013-02-27 20:31:00,
2013-02-27 14:32:00,45.0,36.5,29.92,WNW,296,4.0,7.0,72,0.00,,---,0.00,VWS V14.01,2013-02-27 20:32:00,
2013-02-27 14:36:00,44.9,36.4,29.92,WNW,294,2.0,13.0,72,0.00,,---,0.00,VWS V14.01,2013-02-27 20:36:00,
2013-02-27 14:37:00,45.0,36.5,29.92,NW,311,6.0,13.0,72,0.00,,---,0.00,VWS V14.01,2013-02-27 20:37:00,
2013-02-27 14:41:00,44.9,36.4,29.92,WNW,292,7.0,13.0,72,0.00,,---,0.00,VWS V14.01,2013-02-27 20:41:00,
2013-02-27 14:42:00,45.0,36.5,29.92,WNW,285,11.0,14.0,72,0.00,,---,0.00,VWS V14.01,2013-02-27 20:42:00,
2013-02-27 14:43:00,44.9,36.4,29.92,WNW,302,3.0,14.0,72,0.00,,---,0.00,VWS V14.01,2013-02-27 20:43:00,
2013-02-27 14:46:00,44.9,36.4,29.92,NNW,327,1.0,9.0,72,0.00,,---,0.00,VWS V14.01,2013-02-27 20:46:00,
2013-02-27 14:47:00,44.9,36.4,29.92,NW,304,2.0,9.0,72,0.00,,---,0.00,VWS V14.01,2013-02-27 20:47:00,
2013-02-27 14:48:00,44.9,36.4,29.92,WNW,288,1.0,9.0,72,0.00,,---,0.00,VWS V14.01,2013-02-27 20:48:00,
2013-02-27 14:51:00,44.8,36.3,29.92,NW,309,10.0,13.0,72,0.00,,---,0.00,VWS V14.01,2013-02-27 20:51:00,
2013-02-27 14:52:00,44.7,36.2,29.92,WNW,285,9.0,13.0,72,0.00,,---,0.00,VWS V14.01,2013-02-27 20:52:00,
2013-02-27 14:53:00,44.7,36.2,29.92,NW,306,7.0,13.0,72,0.00,,---,0.00,VWS V14.01,2013-02-27 20:53:00,
2013-02-27 14:56:00,44.7,36.2,29.92,WNW,298,7.0,13.0,72,0.00,,---,0.00,VWS V14.01,2013-02-27 20:56:00,
2013-02-27 14:57:00,44.7,36.2,29.92,WNW,300,5.0,13.0,72,0.00,,---,0.00,VWS V14.01,2013-02-27 20:57:00,
2013-02-27 14:58:00,44.6,36.5,29.92,NW,311,6.0,13.0,73,0.00,,---,0.00,VWS V14.01,2013-02-27 20:58:00,
2013-02-27 15:02:00,44.6,36.5,29.92,NW,312,9.0,10.0,73,0.00,,---,0.00,VWS V14.01,2013-02-27 21:02:00,
2013-02-27 15:03:00,44.6,36.5,29.92,WNW,285,5.0,10.0,73,0.00,,---,0.00,VWS V14.01,2013-02-27 21:03:00,
2013-02-27 15:07:00,44.6,36.8,29.92,WNW,302,1.0,10.0,74,0.00,,---,0.00,VWS V14.01,2013-02-27 21:07:00,
2013-02-27 15:08:00,44.6,36.8,29.92,NW,311,6.0,10.0,74,0.00,,---,0.00,VWS V14.01,2013-02-27 21:08:00,
2013-02-27 15:09:00,44.6,36.8,29.92,West,273,7.0,13.0,74,0.00,,---,0.00,VWS V14.01,2013-02-27 21:09:00,
2013-02-27 15:12:00,44.5,36.7,29.92,NW,308,2.0,13.0,74,0.00,,---,0.00,VWS V14.01,2013-02-27 21:12:00,
2013-02-27 15:13:00,44.5,36.4,29.92,NW,307,4.0,13.0,73,0.00,,---,0.00,VWS V14.01,2013-02-27 21:13:00,
2013-02-27 15:14:00,44.5,36.7,29.93,WNW,299,7.0,13.0,74,0.00,,---,0.00,VWS V14.01,2013-02-27 21:14:00,
2013-02-27 15:17:00,44.5,36.7,29.93,West,275,9.0,12.0,74,0.00,,---,0.00,VWS V14.01,2013-02-27 21:17:00,
2013-02-27 15:18:00,44.5,36.7,29.93,WNW,283,9.0,12.0,74,0.00,,---,0.00,VWS V14.01,2013-02-27 21:18:00,
2013-02-27 15:19:00,44.5,36.7,29.93,WNW,298,6.0,12.0,74,0.00,,---,0.00,VWS V14.01,2013-02-27 21:19:00,
2013-02-27 15:22:00,44.5,36.7,29.93,WNW,285,5.0,12.0,74,0.00,,---,0.00,VWS V14.01,2013-02-27 21:22:00,
2013-02-27 15:23:00,44.5,36.7,29.93,WSW,251,7.0,12.0,74,0.00,,---,0.00,VWS V14.01,2013-02-27 21:23:00,
2013-02-27 15:24:00,44.5,36.7,29.93,NNW,330,6.0,12.0,74,0.00,,---,0.00,VWS V14.01,2013-02-27 21:24:00,
2013-02-27 15:27:00,44.5,36.7,29.93,WNW,291,9.0,13.0,74,0.00,,---,0.00,VWS V14.01,2013-02-27 21:27:00,
2013-02-27 15:28:00,44.5,36.7,29.93,WNW,292,7.0,13.0,74,0.00,,---,0.00,VWS V14.01,2013-02-27 21:28:00,
2013-02-27 15:30:00,44.5,36.7,29.93,West,273,4.0,13.0,74,0.00,,---,0.00,VWS V14.01,2013-02-27 21:30:00,
2013-02-27 15:33:00,44.5,36.7,29.93,NW,322,1.0,6.0,74,0.00,,---,0.00,VWS V14.01,2013-02-27 21:33:00,
2013-02-27 15:35:00,44.5,36.7,29.93,WNW,282,8.0,13.0,74,0.00,,---,0.00,VWS V14.01,2013-02-27 21:35:00,
2013-02-27 15:38:00,44.5,37.1,29.93,NW,313,5.0,13.0,75,0.00,,---,0.00,VWS V14.01,2013-02-27 21:38:00,
2013-02-27 15:39:00,44.5,37.1,29.93,WNW,292,11.0,14.0,75,0.00,,---,0.00,VWS V14.01,2013-02-27 21:39:00,
2013-02-27 15:40:00,44.4,37.0,29.93,NW,318,12.0,14.0,75,0.00,,---,0.00,VWS V14.01,2013-02-27 21:40:00,
2013-02-27 15:43:00,44.4,37.0,29.93,WNW,299,14.0,17.0,75,0.00,,---,0.00,VWS V14.01,2013-02-27 21:43:00,
2013-02-27 15:44:00,44.3,36.5,29.93,NW,308,11.0,17.0,74,0.00,,---,0.00,VWS V14.01,2013-02-27 21:44:00,
2013-02-27 15:45:00,44.3,36.5,29.93,West,278,9.0,19.0,74,0.00,,---,0.00,VWS V14.01,2013-02-27 21:45:00,
2013-02-27 15:48:00,44.2,36.5,29.93,NW,312,6.0,11.0,74,0.00,,---,0.00,VWS V14.01,2013-02-27 21:48:00,
2013-02-27 15:49:00,44.2,36.5,29.93,NW,325,4.0,11.0,74,0.00,,---,0.00,VWS V14.01,2013-02-27 21:49:00,
2013-02-27 15:50:00,44.2,36.5,29.93,WNW,296,2.0,11.0,74,0.00,,---,0.00,VWS V14.01,2013-02-27 21:50:00,
2013-02-27 15:53:00,44.3,36.5,29.94,WNW,292,7.0,11.0,74,0.00,,---,0.00,VWS V14.01,2013-02-27 21:53:00,
2013-02-27 15:54:00,44.3,36.5,29.94,NW,307,3.0,11.0,74,0.00,,---,0.00,VWS V14.01,2013-02-27 21:54:00,
2013-02-27 15:55:00,44.3,36.5,29.94,WNW,294,6.0,11.0,74,0.00,,---,0.00,VWS V14.01,2013-02-27 21:55:00,
2013-02-27 15:58:00,44.3,36.2,29.94,NW,305,3.0,11.0,73,0.00,,---,0.00,VWS V14.01,2013-02-27 21:58:00,
2013-02-27 15:59:00,44.2,36.5,29.94,WNW,298,2.0,11.0,74,0.00,,---,0.00,VWS V14.01,2013-02-27 21:59:00,
2013-02-27 16:00:00,44.2,36.5,29.94,West,270,9.0,10.0,74,0.00,,---,0.00,VWS V14.01,2013-02-27 22:00:00,
2013-02-27 16:03:00,44.1,36.0,29.94,WNW,285,10.0,14.0,73,0.00,,---,0.00,VWS V14.01,2013-02-27 22:03:00,
2013-02-27 16:04:00,44.1,36.0,29.94,WNW,284,8.0,14.0,73,0.00,,---,0.00,VWS V14.01,2013-02-27 22:04:00,
2013-02-27 16:05:00,44.1,36.4,29.94,NW,309,7.0,14.0,74,0.00,,---,0.00,VWS V14.01,2013-02-27 22:05:00,
2013-02-27 16:08:00,44.1,36.0,29.94,WNW,300,8.0,14.0,73,0.00,,---,0.00,VWS V14.01,2013-02-27 22:08:00,
2013-02-27 16:09:00,44.1,36.0,29.94,WNW,288,5.0,16.0,73,0.00,,---,0.00,VWS V14.01,2013-02-27 22:09:00,
2013-02-27 16:10:00,44.1,36.0,29.94,West,278,10.0,16.0,73,0.00,,---,0.00,VWS V14.01,2013-02-27 22:10:00,
2013-02-27 16:13:00,44.4,36.3,29.94,NW,309,6.0,16.0,73,0.00,,---,0.00,VWS V14.01,2013-02-27 22:13:00,
2013-02-27 16:14:00,44.5,36.4,29.94,WNW,302,5.0,16.0,73,0.00,,---,0.00,VWS V14.01,2013-02-27 22:14:00,
2013-02-27 16:15:00,44.5,36.4,29.94,NNW,347,5.0,16.0,73,0.00,,---,0.00,VWS V14.01,2013-02-27 22:15:00,
2013-02-27 16:19:00,44.6,36.2,29.95,WNW,288,9.0,13.0,72,0.00,,---,0.00,VWS V14.01,2013-02-27 22:19:00,
2013-02-27 16:20:00,44.7,36.2,29.95,NW,311,8.0,13.0,72,0.00,,---,0.00,VWS V14.01,2013-02-27 22:20:00,
2013-02-27 16:24:00,44.5,35.7,29.95,WNW,290,11.0,14.0,71,0.00,,---,0.00,VWS V14.01,2013-02-27 22:24:00,
2013-02-27 16:25:00,44.5,35.7,29.95,WNW,285,11.0,14.0,71,0.00,,---,0.00,VWS V14.01,2013-02-27 22:25:00,
2013-02-27 16:26:00,44.5,35.7,29.95,NNW,335,3.0,14.0,71,0.00,,---,0.00,VWS V14.01,2013-02-27 22:26:00,
2013-02-27 16:29:00,44.4,35.6,29.95,WNW,292,5.0,15.0,71,0.00,,---,0.00,VWS V14.01,2013-02-27 22:29:00,
2013-02-27 16:30:00,44.4,35.6,29.95,WNW,295,3.0,15.0,71,0.00,,---,0.00,VWS V14.01,2013-02-27 22:30:00,
2013-02-27 16:31:00,44.4,35.6,29.95,West,263,7.0,13.0,71,0.00,,---,0.00,VWS V14.01,2013-02-27 22:31:00,
2013-02-27 16:34:00,44.4,36.0,29.95,WNW,288,5.0,13.0,72,0.00,,---,0.00,VWS V14.01,2013-02-27 22:34:00,
2013-02-27 16:35:00,44.4,36.0,29.95,WNW,294,7.0,13.0,72,0.00,,---,0.00,VWS V14.01,2013-02-27 22:35:00,
2013-02-27 16:36:00,44.4,36.0,29.95,WNW,287,5.0,13.0,72,0.00,,---,0.00,VWS V14.01,2013-02-27 22:36:00,
2013-02-27 16:39:00,44.5,35.3,29.95,WNW,302,8.0,13.0,70,0.00,,---,0.00,VWS V14.01,2013-02-27 22:39:00,
2013-02-27 16:40:00,44.5,35.7,29.95,West,278,4.0,13.0,71,0.00,,---,0.00,VWS V14.01,2013-02-27 22:40:00,
2013-02-27 16:41:00,44.4,35.6,29.95,West,280,7.0,13.0,71,0.00,,---,0.00,VWS V14.01,2013-02-27 22:41:00,
2013-02-27 16:44:00,44.4,35.2,29.95,West,276,7.0,13.0,70,0.00,,---,0.00,VWS V14.01,2013-02-27 22:44:00,
2013-02-27 16:45:00,44.4,35.2,29.95,WNW,290,8.0,8.0,70,0.00,,---,0.00,VWS V14.01,2013-02-27 22:45:00,
2013-02-27 16:46:00,44.4,35.2,29.95,West,263,9.0,11.0,70,0.00,,---,0.00,VWS V14.01,2013-02-27 22:46:00,
2013-02-27 16:49:00,44.4,34.9,29.95,WNW,302,6.0,11.0,69,0.00,,---,0.00,VWS V14.01,2013-02-27 22:49:00,
2013-02-27 16:50:00,44.4,34.9,29.95,WNW,297,6.0,11.0,69,0.00,,---,0.00,VWS V14.01,2013-02-27 22:50:00,
2013-02-27 16:51:00,44.4,34.9,29.95,WNW,283,7.0,12.0,69,0.00,,---,0.00,VWS V14.01,2013-02-27 22:51:00,
2013-02-27 16:54:00,44.4,35.2,29.95,WNW,296,10.0,14.0,70,0.00,,---,0.00,VWS V14.01,2013-02-27 22:54:00,
2013-02-27 16:55:00,44.4,35.2,29.95,WNW,300,10.0,14.0,70,0.00,,---,0.00,VWS V14.01,2013-02-27 22:55:00,
2013-02-27 16:56:00,44.4,34.9,29.95,WNW,289,5.0,14.0,69,0.00,,---,0.00,VWS V14.01,2013-02-27 22:56:00,
2013-02-27 17:00:00,44.4,35.2,29.95,NW,308,2.0,14.0,70,0.00,,---,0.00,VWS V14.01,2013-02-27 23:00:00,
2013-02-27 17:01:00,44.3,34.8,29.95,West,280,13.0,14.0,69,0.00,,---,0.00,VWS V14.01,2013-02-27 23:01:00,
2013-02-27 17:05:00,44.3,34.8,29.95,WNW,294,5.0,16.0,69,0.00,,---,0.00,VWS V14.01,2013-02-27 23:05:00,
2013-02-27 17:06:00,44.3,35.2,29.95,WSW,250,9.0,16.0,70,0.00,,---,0.00,VWS V14.01,2013-02-27 23:06:00,
2013-02-27 17:10:00,44.3,35.2,29.95,WNW,299,4.0,16.0,70,0.00,,---,0.00,VWS V14.01,2013-02-27 23:10:00,
2013-02-27 17:11:00,44.3,35.2,29.95,West,270,9.0,16.0,70,0.00,,---,0.00,VWS V14.01,2013-02-27 23:11:00,
2013-02-27 17:15:00,44.3,35.5,29.95,West,267,5.0,16.0,71,0.00,,---,0.00,VWS V14.01,2013-02-27 23:15:00,
2013-02-27 17:16:00,44.3,35.5,29.95,NW,318,5.0,6.0,71,0.00,,---,0.00,VWS V14.01,2013-02-27 23:16:00,
2013-02-27 17:20:00,44.2,35.0,29.95,WNW,290,8.0,11.0,70,0.00,,---,0.00,VWS V14.01,2013-02-27 23:20:00,
2013-02-27 17:21:00,44.3,35.2,29.95,WNW,285,11.0,11.0,70,0.00,,---,0.00,VWS V14.01,2013-02-27 23:21:00,
2013-02-27 17:25:00,44.2,35.4,29.95,West,278,5.0,13.0,71,0.00,,---,0.00,VWS V14.01,2013-02-27 23:25:00,
2013-02-27 17:26:00,44.2,35.4,29.95,WNW,282,6.0,13.0,71,0.00,,---,0.00,VWS V14.01,2013-02-27 23:26:00,
2013-02-27 17:31:00,44.2,35.4,29.95,WNW,301,4.0,5.0,71,0.00,,---,0.00,VWS V14.01,2013-02-27 23:31:00,
2013-02-27 17:36:00,44.2,35.4,29.95,WNW,288,4.0,7.0,71,0.00,,---,0.00,VWS V14.01,2013-02-27 23:36:00,
2013-02-27 17:41:00,44.3,35.5,29.95,WNW,285,10.0,10.0,71,0.00,,---,0.00,VWS V14.01,2013-02-27 23:41:00,
2013-02-27 17:42:00,44.3,35.5,29.95,WNW,297,8.0,10.0,71,0.00,,---,0.00,VWS V14.01,2013-02-27 23:42:00,
2013-02-27 17:46:00,44.2,35.4,29.95,WNW,295,2.0,4.0,71,0.00,,---,0.00,VWS V14.01,2013-02-27 23:46:00,
2013-02-27 17:47:00,44.2,35.4,29.95,West,278,4.0,4.0,71,0.00,,---,0.00,VWS V14.01,2013-02-27 23:47:00,
2013-02-27 17:51:00,44.1,35.3,29.96,WNW,302,4.0,9.0,71,0.00,,---,0.00,VWS V14.01,2013-02-27 23:51:00,
2013-02-27 17:52:00,44.1,35.3,29.96,WNW,295,8.0,10.0,71,0.00,,---,0.00,VWS V14.01,2013-02-27 23:52:00,
2013-02-27 17:56:00,44.1,35.7,29.95,WNW,282,4.0,10.0,72,0.00,,---,0.00,VWS V14.01,2013-02-27 23:56:00,
2013-02-27 17:57:00,44.1,35.3,29.95,WNW,292,4.0,10.0,71,0.00,,---,0.00,VWS V14.01,2013-02-27 23:57:00,
2013-02-27 18:01:00,44.1,35.3,29.96,WNW,285,3.0,5.0,71,0.00,,---,0.00,VWS V14.01,2013-02-28 00:01:00,
2013-02-27 18:02:00,44.1,35.3,29.96,WNW,292,6.0,7.0,71,0.00,,---,0.00,VWS V14.01,2013-02-28 00:02:00,
2013-02-27 18:06:00,44.1,35.7,29.96,WNW,290,3.0,7.0,72,0.00,,---,0.00,VWS V14.01,2013-02-28 00:06:00,
2013-02-27 18:07:00,44.1,35.7,29.96,NW,304,4.0,7.0,72,0.00,,---,0.00,VWS V14.01,2013-02-28 00:07:00,
2013-02-27 18:12:00,44.1,35.7,29.96,West,281,5.0,7.0,72,0.00,,---,0.00,VWS V14.01,2013-02-28 00:12:00,
2013-02-27 18:13:00,44.1,35.7,29.96,WNW,294,3.0,7.0,72,0.00,,---,0.00,VWS V14.01,2013-02-28 00:13:00,
2013-02-27 18:17:00,44.0,35.6,29.96,WNW,288,4.0,4.0,72,0.00,,---,0.00,VWS V14.01,2013-02-28 00:17:00,
2013-02-27 18:18:00,44.0,35.6,29.96,WNW,299,4.0,4.0,72,0.00,,---,0.00,VWS V14.01,2013-02-28 00:18:00,
2013-02-27 18:22:00,44.0,35.6,29.96,West,273,5.0,5.0,72,0.00,,---,0.00,VWS V14.01,2013-02-28 00:22:00,
2013-02-27 18:23:00,44.0,35.6,29.96,WNW,292,4.0,6.0,72,0.00,,---,0.00,VWS V14.01,2013-02-28 00:23:00,
2013-02-27 18:27:00,43.8,35.4,29.96,West,276,2.0,6.0,72,0.00,,---,0.00,VWS V14.01,2013-02-28 00:27:00,
2013-02-27 18:28:00,43.9,35.5,29.96,WNW,289,3.0,6.0,72,0.00,,---,0.00,VWS V14.01,2013-02-28 00:28:00,
2013-02-27 18:32:00,43.7,35.6,29.96,WNW,294,4.0,6.0,73,0.00,,---,0.00,VWS V14.01,2013-02-28 00:32:00,
2013-02-27 18:33:00,43.7,35.6,29.96,West,280,3.0,6.0,73,0.00,,---,0.00,VWS V14.01,2013-02-28 00:33:00,
2013-02-27 18:37:00,43.5,35.4,29.96,WNW,288,5.0,6.0,73,0.00,,---,0.00,VWS V14.01,2013-02-28 00:37:00,
2013-02-27 18:38:00,43.5,35.4,29.96,West,259,5.0,6.0,73,0.00,,---,0.00,VWS V14.01,2013-02-28 00:38:00,
2013-02-27 18:42:00,43.4,35.3,29.96,WNW,297,4.0,6.0,73,0.00,,---,0.00,VWS V14.01,2013-02-28 00:42:00,
2013-02-27 18:43:00,43.4,35.3,29.96,WNW,299,3.0,6.0,73,0.00,,---,0.00,VWS V14.01,2013-02-28 00:43:00,
2013-02-27 18:47:00,43.2,35.5,29.96,WNW,283,4.0,4.0,74,0.00,,---,0.00,VWS V14.01,2013-02-28 00:47:00,
2013-02-27 18:48:00,43.2,35.5,29.96,WNW,287,4.0,5.0,74,0.00,,---,0.00,VWS V14.01,2013-02-28 00:48:00,
2013-02-27 18:52:00,43.1,35.4,29.96,WNW,299,6.0,6.0,74,0.00,,---,0.00,VWS V14.01,2013-02-28 00:52:00,
2013-02-27 18:53:00,43.0,35.3,29.96,WNW,290,2.0,6.0,74,0.00,,---,0.00,VWS V14.01,2013-02-28 00:53:00,
2013-02-27 18:57:00,43.0,35.3,29.96,West,276,1.0,7.0,74,0.00,,---,0.00,VWS V14.01,2013-02-28 00:57:00,
2013-02-27 18:58:00,43.0,35.3,29.96,WNW,288,4.0,7.0,74,0.00,,---,0.00,VWS V14.01,2013-02-28 00:58:00,
2013-02-27 19:02:00,43.1,35.4,29.96,WNW,291,4.0,5.0,74,0.00,,---,0.00,VWS V14.01,2013-02-28 01:02:00,
2013-02-27 19:03:00,43.1,35.4,29.96,West,280,3.0,5.0,74,0.00,,---,0.00,VWS V14.01,2013-02-28 01:03:00,
2013-02-27 19:07:00,43.1,35.4,29.96,West,276,2.0,5.0,74,0.00,,---,0.00,VWS V14.01,2013-02-28 01:07:00,
2013-02-27 19:08:00,43.1,35.4,29.96,WNW,290,3.0,5.0,74,0.00,,---,0.00,VWS V14.01,2013-02-28 01:08:00,
2013-02-27 19:13:00,43.1,35.7,29.96,WNW,285,1.0,5.0,75,0.00,,---,0.00,VWS V14.01,2013-02-28 01:13:00,
2013-02-27 19:14:00,43.1,35.7,29.96,West,270,2.0,5.0,75,0.00,,---,0.00,VWS V14.01,2013-02-28 01:14:00,
2013-02-27 19:18:00,42.9,35.5,29.96,West,269,2.0,3.0,75,0.00,,---,0.00,VWS V14.01,2013-02-28 01:18:00,
2013-02-27 19:19:00,42.9,35.5,29.96,West,274,2.0,3.0,75,0.00,,---,0.00,VWS V14.01,2013-02-28 01:19:00,
2013-02-27 19:23:00,42.7,35.3,29.96,West,271,3.0,3.0,75,0.00,,---,0.00,VWS V14.01,2013-02-28 01:23:00,
2013-02-27 19:24:00,42.6,35.2,29.96,West,269,4.0,4.0,75,0.00,,---,0.00,VWS V14.01,2013-02-28 01:24:00,
2013-02-27 19:28:00,42.5,35.2,29.96,West,273,1.0,4.0,75,0.00,,---,0.00,VWS V14.01,2013-02-28 01:28:00,
2013-02-27 19:29:00,42.5,35.2,29.96,West,270,1.0,4.0,75,0.00,,---,0.00,VWS V14.01,2013-02-28 01:29:00,
2013-02-27 19:33:00,42.3,35.3,29.96,West,271,1.0,4.0,76,0.00,,---,0.00,VWS V14.01,2013-02-28 01:33:00,
2013-02-27 19:34:00,42.3,35.3,29.96,West,270,2.0,4.0,76,0.00,,---,0.00,VWS V14.01,2013-02-28 01:34:00,
2013-02-27 19:38:00,42.2,35.2,29.96,West,262,3.0,4.0,76,0.00,,---,0.00,VWS V14.01,2013-02-28 01:38:00,
2013-02-27 19:39:00,42.2,35.2,29.96,West,271,3.0,4.0,76,0.00,,---,0.00,VWS V14.01,2013-02-28 01:39:00,
2013-02-27 19:43:00,42.1,35.1,29.96,West,270,2.0,4.0,76,0.00,,---,0.00,VWS V14.01,2013-02-28 01:43:00,
2013-02-27 19:44:00,42.1,35.1,29.96,WNW,291,2.0,4.0,76,0.00,,---,0.00,VWS V14.01,2013-02-28 01:44:00,
2013-02-27 19:48:00,42.1,35.1,29.96,West,262,3.0,4.0,76,0.00,,---,0.00,VWS V14.01,2013-02-28 01:48:00,
2013-02-27 19:49:00,42.1,35.1,29.96,West,259,2.0,4.0,76,0.00,,---,0.00,VWS V14.01,2013-02-28 01:49:00,
2013-02-27 19:50:00,42.2,35.2,29.96,West,275,2.0,4.0,76,0.00,,---,0.00,VWS V14.01,2013-02-28 01:50:00,
2013-02-27 19:53:00,42.2,35.2,29.96,WNW,283,3.0,4.0,76,0.00,,---,0.00,VWS V14.01,2013-02-28 01:53:00,
2013-02-27 19:54:00,42.2,35.2,29.96,West,276,2.0,4.0,76,0.00,,---,0.00,VWS V14.01,2013-02-28 01:54:00,
2013-02-27 19:55:00,42.1,35.4,29.96,West,269,4.0,4.0,77,0.00,,---,0.00,VWS V14.01,2013-02-28 01:55:00,
2013-02-27 19:58:00,42.2,35.5,29.96,WNW,288,4.0,5.0,77,0.00,,---,0.00,VWS V14.01,2013-02-28 01:58:00,
2013-02-27 19:59:00,42.1,35.4,29.96,West,271,3.0,5.0,77,0.00,,---,0.00,VWS V14.01,2013-02-28 01:59:00,
2013-02-27 20:00:00,42.2,35.5,29.96,West,273,3.0,5.0,77,0.00,,---,0.00,VWS V14.01,2013-02-28 02:00:00,
2013-02-27 20:03:00,42.2,35.2,29.96,West,271,3.0,5.0,76,0.00,,---,0.00,VWS V14.01,2013-02-28 02:03:00,
2013-02-27 20:04:00,42.2,35.2,29.96,West,266,3.0,5.0,76,0.00,,---,0.00,VWS V14.01,2013-02-28 02:04:00,
2013-02-27 20:05:00,42.3,35.3,29.96,West,266,3.0,5.0,76,0.00,,---,0.00,VWS V14.01,2013-02-28 02:05:00,
2013-02-27 20:08:00,42.2,35.2,29.96,West,273,2.0,7.0,76,0.00,,---,0.00,VWS V14.01,2013-02-28 02:08:00,
2013-02-27 20:09:00,42.3,35.3,29.96,West,268,2.0,7.0,76,0.00,,---,0.00,VWS V14.01,2013-02-28 02:09:00,
2013-02-27 20:10:00,42.2,35.2,29.96,West,268,3.0,7.0,76,0.00,,---,0.00,VWS V14.01,2013-02-28 02:10:00,
2013-02-27 20:13:00,42.2,35.2,29.96,West,269,5.0,7.0,76,0.00,,---,0.00,VWS V14.01,2013-02-28 02:13:00,
2013-02-27 20:14:00,42.3,35.3,29.96,WSW,249,4.0,7.0,76,0.00,,---,0.00,VWS V14.01,2013-02-28 02:14:00,
2013-02-27 20:15:00,42.3,35.3,29.96,West,275,1.0,7.0,76,0.00,,---,0.00,VWS V14.01,2013-02-28 02:15:00,
2013-02-27 20:19:00,42.4,35.4,29.96,West,265,3.0,8.0,76,0.00,,---,0.00,VWS V14.01,2013-02-28 02:19:00,
2013-02-27 20:20:00,42.4,35.4,29.96,West,266,4.0,8.0,76,0.00,,---,0.00,VWS V14.01,2013-02-28 02:20:00,
2013-02-27 20:24:00,42.5,35.5,29.96,WNW,294,3.0,8.0,76,0.00,,---,0.00,VWS V14.01,2013-02-28 02:24:00,
2013-02-27 20:25:00,42.5,35.5,29.96,West,269,4.0,8.0,76,0.00,,---,0.00,VWS V14.01,2013-02-28 02:25:00,
2013-02-27 20:29:00,42.7,35.3,29.96,WNW,285,6.0,8.0,75,0.00,,---,0.00,VWS V14.01,2013-02-28 02:29:00,
2013-02-27 20:30:00,42.7,35.3,29.96,WNW,292,3.0,8.0,75,0.00,,---,0.00,VWS V14.01,2013-02-28 02:30:00,
2013-02-27 20:31:00,42.7,35.3,29.96,West,279,5.0,5.0,75,0.00,,---,0.00,VWS V14.01,2013-02-28 02:31:00,
2013-02-27 20:34:00,42.8,35.4,29.96,WNW,299,5.0,6.0,75,0.00,,---,0.00,VWS V14.01,2013-02-28 02:34:00,
2013-02-27 20:35:00,42.8,35.4,29.96,WNW,289,5.0,6.0,75,0.00,,---,0.00,VWS V14.01,2013-02-28 02:35:00,
2013-02-27 20:36:00,42.8,35.4,29.96,West,276,3.0,6.0,75,0.00,,---,0.00,VWS V14.01,2013-02-28 02:36:00,
2013-02-27 20:39:00,42.9,35.2,29.96,West,276,5.0,11.0,74,0.00,,---,0.00,VWS V14.01,2013-02-28 02:39:00,
2013-02-27 20:40:00,42.9,35.2,29.96,West,280,6.0,11.0,74,0.00,,---,0.00,VWS V14.01,2013-02-28 02:40:00,
2013-02-27 20:41:00,42.9,35.2,29.96,NW,308,5.0,11.0,74,0.00,,---,0.00,VWS V14.01,2013-02-28 02:41:00,
2013-02-27 20:44:00,43.1,35.0,29.96,WNW,292,7.0,11.0,73,0.00,,---,0.00,VWS V14.01,2013-02-28 02:44:00,
2013-02-27 20:45:00,43.1,35.0,29.96,WNW,301,16.0,16.0,73,0.00,,---,0.00,VWS V14.01,2013-02-28 02:45:00,
2013-02-27 20:46:00,43.1,35.0,29.96,West,270,11.0,12.0,73,0.00,,---,0.00,VWS V14.01,2013-02-28 02:46:00,
2013-02-27 20:49:00,43.3,35.2,29.96,WNW,299,6.0,12.0,73,0.00,,---,0.00,VWS V14.01,2013-02-28 02:49:00,
2013-02-27 20:50:00,43.3,34.9,29.96,NW,321,3.0,12.0,72,0.00,,---,0.00,VWS V14.01,2013-02-28 02:50:00,
2013-02-27 20:51:00,43.3,34.9,29.96,WNW,294,6.0,12.0,72,0.00,,---,0.00,VWS V14.01,2013-02-28 02:51:00,
2013-02-27 20:55:00,43.5,35.1,29.96,WNW,294,9.0,17.0,72,0.00,,---,0.00,VWS V14.01,2013-02-28 02:55:00,
2013-02-27 20:56:00,43.5,34.7,29.96,WNW,285,6.0,17.0,71,0.00,,---,0.00,VWS V14.01,2013-02-28 02:56:00,
2013-02-27 21:00:00,43.7,34.9,29.96,West,271,10.0,18.0,71,0.00,,---,0.00,VWS V14.01,2013-02-28 03:00:00,
2013-02-27 21:01:00,43.7,34.9,29.96,WNW,296,8.0,11.0,71,0.00,,---,0.00,VWS V14.01,2013-02-28 03:01:00,
2013-02-27 21:05:00,43.7,34.9,29.96,WNW,285,11.0,14.0,71,0.00,,---,0.00,VWS V14.01,2013-02-28 03:05:00,
2013-02-27 21:06:00,43.7,34.9,29.96,West,280,5.0,14.0,71,0.00,,---,0.00,VWS V14.01,2013-02-28 03:06:00,
2013-02-27 21:10:00,43.7,34.9,29.96,WNW,301,11.0,17.0,71,0.00,,---,0.00,VWS V14.01,2013-02-28 03:10:00,
2013-02-27 21:11:00,43.7,34.9,29.96,WNW,297,5.0,17.0,71,0.00,,---,0.00,VWS V14.01,2013-02-28 03:11:00,
2013-02-27 21:15:00,43.6,34.8,29.96,WNW,285,6.0,17.0,71,0.00,,---,0.00,VWS V14.01,2013-02-28 03:15:00,
2013-02-27 21:16:00,43.6,34.8,29.96,West,279,14.0,14.0,71,0.00,,---,0.00,VWS V14.01,2013-02-28 03:16:00,
2013-02-27 21:20:00,43.6,34.8,29.96,West,281,7.0,14.0,71,0.00,,---,0.00,VWS V14.01,2013-02-28 03:20:00,
2013-02-27 21:21:00,43.6,34.8,29.97,West,278,7.0,14.0,71,0.00,,---,0.00,VWS V14.01,2013-02-28 03:21:00,
2013-02-27 21:25:00,43.6,34.8,29.97,NW,318,2.0,14.0,71,0.00,,---,0.00,VWS V14.01,2013-02-28 03:25:00,
2013-02-27 21:26:00,43.6,34.8,29.97,West,264,7.0,14.0,71,0.00,,---,0.00,VWS V14.01,2013-02-28 03:26:00,
2013-02-27 21:30:00,43.6,34.8,29.97,NW,311,1.0,14.0,71,0.00,,---,0.00,VWS V14.01,2013-02-28 03:30:00,
2013-02-27 21:31:00,43.6,34.8,29.97,NW,304,1.0,11.0,71,0.00,,---,0.00,VWS V14.01,2013-02-28 03:31:00,
2013-02-27 21:35:00,43.6,34.8,29.97,WNW,296,5.0,11.0,71,0.00,,---,0.00,VWS V14.01,2013-02-28 03:35:00,
2013-02-27 21:36:00,43.6,34.8,29.97,NNW,337,1.0,13.0,71,0.00,,---,0.00,VWS V14.01,2013-02-28 03:36:00,
2013-02-27 21:37:00,43.6,34.8,29.97,NW,313,1.0,13.0,71,0.00,,---,0.00,VWS V14.01,2013-02-28 03:37:00,
2013-02-27 21:40:00,43.7,34.6,29.97,NW,307,1.0,13.0,70,0.00,,---,0.00,VWS V14.01,2013-02-28 03:40:00,
2013-02-27 21:41:00,43.7,34.9,29.97,WNW,290,4.0,13.0,71,0.00,,---,0.00,VWS V14.01,2013-02-28 03:41:00,
2013-02-27 21:42:00,43.7,34.9,29.97,NW,309,9.0,13.0,71,0.00,,---,0.00,VWS V14.01,2013-02-28 03:42:00,
2013-02-27 21:45:00,43.6,34.8,29.97,NW,305,2.0,2.0,71,0.00,,---,0.00,VWS V14.01,2013-02-28 03:45:00,
2013-02-27 21:46:00,43.6,34.8,29.97,WNW,292,2.0,4.0,71,0.00,,---,0.00,VWS V14.01,2013-02-28 03:46:00,
2013-02-27 21:47:00,43.6,34.8,29.97,WNW,292,1.0,4.0,71,0.00,,---,0.00,VWS V14.01,2013-02-28 03:47:00,
2013-02-27 21:50:00,43.6,34.8,29.97,WNW,285,2.0,8.0,71,0.00,,---,0.00,VWS V14.01,2013-02-28 03:50:00,
2013-02-27 21:51:00,43.5,34.7,29.97,WNW,297,3.0,8.0,71,0.00,,---,0.00,VWS V14.01,2013-02-28 03:51:00,
2013-02-27 21:52:00,43.5,34.7,29.97,WNW,292,3.0,8.0,71,0.00,,---,0.00,VWS V14.01,2013-02-28 03:52:00,
2013-02-27 21:56:00,43.5,35.1,29.97,NW,318,3.0,8.0,72,0.00,,---,0.00,VWS V14.01,2013-02-28 03:56:00,
2013-02-27 21:57:00,43.5,34.7,29.97,WNW,294,2.0,8.0,71,0.00,,---,0.00,VWS V14.01,2013-02-28 03:57:00,
2013-02-27 22:01:00,43.5,35.1,29.97,WNW,301,1.0,2.0,72,0.00,,---,0.00,VWS V14.01,2013-02-28 04:01:00,
2013-02-27 22:02:00,43.5,35.1,29.97,WNW,302,1.0,2.0,72,0.00,,---,0.00,VWS V14.01,2013-02-28 04:02:00,
2013-02-27 22:06:00,43.5,35.1,29.97,WNW,285,1.0,7.0,72,0.00,,---,0.00,VWS V14.01,2013-02-28 04:06:00,
2013-02-27 22:07:00,43.5,35.1,29.97,NNW,330,0.0,7.0,72,0.00,,---,0.00,VWS V14.01,2013-02-28 04:07:00,
2013-02-27 22:11:00,43.4,35.0,29.97,WNW,298,2.0,7.0,72,0.00,,---,0.00,VWS V14.01,2013-02-28 04:11:00,
2013-02-27 22:12:00,43.4,35.0,29.97,WNW,294,6.0,7.0,72,0.00,,---,0.00,VWS V14.01,2013-02-28 04:12:00,
2013-02-27 22:13:00,43.4,35.0,29.97,WNW,283,5.0,7.0,72,0.00,,---,0.00,VWS V14.01,2013-02-28 04:13:00,
2013-02-27 22:16:00,43.3,34.9,29.97,North,356,2.0,10.0,72,0.00,,---,0.00,VWS V14.01,2013-02-28 04:16:00,
2013-02-27 22:18:00,43.2,34.5,29.97,WNW,299,1.0,10.0,71,0.00,,---,0.00,VWS V14.01,2013-02-28 04:18:00,
2013-02-27 22:19:00,43.3,34.5,29.97,WNW,298,1.0,10.0,71,0.00,,---,0.00,VWS V14.01,2013-02-28 04:19:00,
2013-02-27 22:22:00,43.1,32.5,29.97,WNW,298,1.0,10.0,66,0.00,,---,0.00,VWS V14.01,2013-02-28 04:22:00,
2013-02-27 22:23:00,43.1,32.5,29.97,WNW,300,1.0,10.0,66,0.00,,---,0.00,VWS V14.01,2013-02-28 04:23:00,
2013-02-27 22:24:00,43.1,32.2,29.97,NW,307,2.0,10.0,65,0.00,,---,0.00,VWS V14.01,2013-02-28 04:24:00,
2013-02-27 22:27:00,43.0,31.7,29.97,WNW,283,2.0,10.0,64,0.00,,---,0.00,VWS V14.01,2013-02-28 04:27:00,
2013-02-27 22:28:00,43.0,31.3,29.97,NW,308,2.0,10.0,63,0.00,,---,0.00,VWS V14.01,2013-02-28 04:28:00,
2013-02-27 22:29:00,42.9,31.2,29.97,WNW,300,2.0,10.0,63,0.00,,---,0.00,VWS V14.01,2013-02-28 04:29:00,
2013-02-27 22:32:00,42.9,30.8,29.97,WNW,301,2.0,4.0,62,0.00,,---,0.00,VWS V14.01,2013-02-28 04:32:00,
2013-02-27 22:33:00,42.9,30.8,29.97,NW,321,1.0,4.0,62,0.00,,---,0.00,VWS V14.01,2013-02-28 04:33:00,
2013-02-27 22:34:00,42.9,30.8,29.97,NW,305,2.0,8.0,62,0.00,,---,0.00,VWS V14.01,2013-02-28 04:34:00,
2013-02-27 22:37:00,42.8,30.7,29.97,WNW,297,3.0,8.0,62,0.00,,---,0.00,VWS V14.01,2013-02-28 04:37:00,
2013-02-27 22:38:00,42.8,30.7,29.97,WNW,301,4.0,8.0,62,0.00,,---,0.00,VWS V14.01,2013-02-28 04:38:00,
2013-02-27 22:39:00,42.8,30.7,29.97,WNW,299,1.0,8.0,62,0.00,,---,0.00,VWS V14.01,2013-02-28 04:39:00,
2013-02-27 22:42:00,42.7,30.6,29.97,NW,315,0.0,8.0,62,0.00,,---,0.00,VWS V14.01,2013-02-28 04:42:00,
2013-02-27 22:43:00,42.7,30.6,29.97,WNW,303,2.0,8.0,62,0.00,,---,0.00,VWS V14.01,2013-02-28 04:43:00,
2013-02-27 22:44:00,42.7,30.6,29.97,WNW,302,1.0,8.0,62,0.00,,---,0.00,VWS V14.01,2013-02-28 04:44:00,
2013-02-27 22:47:00,42.5,30.4,29.97,WNW,297,2.0,3.0,62,0.00,,---,0.00,VWS V14.01,2013-02-28 04:47:00,
2013-02-27 22:48:00,42.6,30.5,29.97,NNW,330,2.0,4.0,62,0.00,,---,0.00,VWS V14.01,2013-02-28 04:48:00,
2013-02-27 22:49:00,42.5,30.4,29.97,WNW,297,2.0,4.0,62,0.00,,---,0.00,VWS V14.01,2013-02-28 04:49:00,
2013-02-27 22:50:00,42.5,30.4,29.97,WNW,301,1.0,4.0,62,0.00,,---,0.00,VWS V14.01,2013-02-28 04:50:00,
2013-02-27 22:52:00,42.5,30.4,29.97,NNW,340,5.0,14.0,62,0.00,,---,0.00,VWS V14.01,2013-02-28 04:52:00,
2013-02-27 22:53:00,42.4,30.3,29.97,NNW,333,1.0,14.0,62,0.00,,---,0.00,VWS V14.01,2013-02-28 04:53:00,
2013-02-27 22:54:00,42.4,30.3,29.97,NW,323,1.0,14.0,62,0.00,,---,0.00,VWS V14.01,2013-02-28 04:54:00,
2013-02-27 22:55:00,42.4,30.3,29.97,WNW,297,6.0,14.0,62,0.00,,---,0.00,VWS V14.01,2013-02-28 04:55:00,
2013-02-27 22:57:00,42.4,30.3,29.97,NW,311,2.0,14.0,62,0.00,,---,0.00,VWS V14.01,2013-02-28 04:57:00,
2013-02-27 22:59:00,42.3,30.2,29.97,WNW,300,0.0,14.0,62,0.00,,---,0.00,VWS V14.01,2013-02-28 04:59:00,
2013-02-27 23:00:00,42.2,30.1,29.97,NNW,346,3.0,14.0,62,0.00,,---,0.00,VWS V14.01,2013-02-28 05:00:00,
2013-02-27 23:01:00,42.2,30.1,29.97,NW,304,6.0,6.0,62,0.00,,---,0.00,VWS V14.01,2013-02-28 05:01:00,
2013-02-27 23:05:00,42.1,30.4,29.97,WNW,290,1.0,8.0,63,0.00,,---,0.00,VWS V14.01,2013-02-28 05:05:00,
2013-02-27 23:06:00,42.1,30.4,29.97,NW,315,3.0,8.0,63,0.00,,---,0.00,VWS V14.01,2013-02-28 05:06:00,
2013-02-27 23:10:00,42.0,30.7,29.97,NW,312,1.0,8.0,64,0.00,,---,0.00,VWS V14.01,2013-02-28 05:10:00,
2013-02-27 23:11:00,42.0,30.7,29.97,NW,314,1.0,8.0,64,0.00,,---,0.00,VWS V14.01,2013-02-28 05:11:00,
2013-02-27 23:15:00,41.8,31.3,29.97,NNE,24,3.0,8.0,66,0.00,,---,0.00,VWS V14.01,2013-02-28 05:15:00,
2013-02-27 23:16:00,41.7,31.2,29.97,NNE,28,4.0,4.0,66,0.00,,---,0.00,VWS V14.01,2013-02-28 05:16:00,
2013-02-27 23:20:00,41.2,31.1,29.97,NNW,330,1.0,4.0,67,0.00,,---,0.00,VWS V14.01,2013-02-28 05:20:00,
2013-02-27 23:21:00,41.1,31.0,29.97,NNW,332,2.0,4.0,67,0.00,,---,0.00,VWS V14.01,2013-02-28 05:21:00,
2013-02-27 23:25:00,40.7,31.0,29.98,NW,320,0.0,4.0,68,0.00,,---,0.00,VWS V14.01,2013-02-28 05:25:00,
2013-02-27 23:26:00,40.6,30.9,29.98,NNW,328,1.0,4.0,68,0.00,,---,0.00,VWS V14.01,2013-02-28 05:26:00,
2013-02-27 23:30:00,40.3,31.0,29.97,NW,304,0.0,4.0,69,0.00,,---,0.00,VWS V14.01,2013-02-28 05:30:00,
2013-02-27 23:31:00,40.3,31.0,29.98,WNW,284,2.0,2.0,69,0.00,,---,0.00,VWS V14.01,2013-02-28 05:31:00,
2013-02-27 23:35:00,40.2,30.9,29.98,NNW,334,1.0,4.0,69,0.00,,---,0.00,VWS V14.01,2013-02-28 05:35:00,
2013-02-27 23:36:00,40.1,30.8,29.98,WNW,299,1.0,4.0,69,0.00,,---,0.00,VWS V14.01,2013-02-28 05:36:00,
2013-02-27 23:40:00,40.1,31.1,29.98,NW,311,0.0,4.0,70,0.00,,---,0.00,VWS V14.01,2013-02-28 05:40:00,
2013-02-27 23:41:00,40.0,31.0,29.98,NW,307,1.0,4.0,70,0.00,,---,0.00,VWS V14.01,2013-02-28 05:41:00,
2013-02-27 23:42:00,40.0,31.0,29.98,WNW,282,0.0,4.0,70,0.00,,---,0.00,VWS V14.01,2013-02-28 05:42:00,
2013-02-27 23:45:00,40.0,31.0,29.98,NW,325,0.0,1.0,70,0.00,,---,0.00,VWS V14.01,2013-02-28 05:45:00,
2013-02-27 23:46:00,40.0,31.0,29.98,NW,307,1.0,2.0,70,0.00,,---,0.00,VWS V14.01,2013-02-28 05:46:00,
2013-02-27 23:47:00,40.0,31.0,29.98,NW,315,1.0,2.0,70,0.00,,---,0.00,VWS V14.01,2013-02-28 05:47:00,
2013-02-27 23:51:00,40.0,31.0,29.98,North,349,1.0,3.0,70,0.00,,---,0.00,VWS V14.01,2013-02-28 05:51:00,
2013-02-27 23:52:00,39.9,30.9,29.98,North,359,4.0,4.0,70,0.00,,---,0.00,VWS V14.01,2013-02-28 05:52:00,
2013-02-27 23:56:00,39.9,30.9,29.98,NNW,337,1.0,4.0,70,0.00,,---,0.00,VWS V14.01,2013-02-28 05:56:00,
2013-02-27 23:57:00,39.9,30.9,29.98,NW,308,1.0,4.0,70,0.00,,---,0.00,VWS V14.01,2013-02-28 05:57:00,